Time,TemperatureF,DewpointF,PressureIn,WindDirection,WindDirectionDegrees,WindSpeedMPH,WindSpeedGustMPH,Humidity,HourlyPrecipIn,Conditions,Clouds,dailyrainin,SoftwareType,DateUTC
2013-02-10 00:02:00,39.4,19.3,30.03,SSW,213,3.9,8.1,44,-99.99,,,-99.99,WSDL version 423,2013-02-10 08:02:00,
2013-02-10 00:07:00,39.4,19.3,30.03,SSW,203,4.6,7.6,44,-99.99,,,-99.99,WSDL version 423,2013-02-10 08:07:00,
2013-02-10 00:12:00,39.6,19.4,30.03,SW,218,5.3,8.7,43,-99.99,,,-99.99,WSDL version 423,2013-02-10 08:12:00,
2013-02-10 00:17:00,39.7,19.0,30.03,SW,225,4.9,8.7,43,-99.99,,,-99.99,WSDL version 423,2013-02-10 08:17:00,
2013-02-10 00:22:00,39.6,19.2,30.03,SW,228,4.2,8.7,44,-99.99,,,-99.99,WSDL version 423,2013-02-10 08:22:00,
2013-02-10 00:27:00,39.6,19.4,30.03,SW,225,5.9,8.1,43,-99.99,,,-99.99,WSDL version 423,2013-02-10 08:27:00,
2013-02-10 00:33:00,39.6,18.9,30.03,SW,231,5.8,7.6,43,-99.99,,,-99.99,WSDL version 423,2013-02-10 08:33:00,
2013-02-10 00:38:00,39.7,19.0,30.03,SW,222,6.0,8.7,43,-99.99,,,-99.99,WSDL version 423,2013-02-10 08:38:00,
2013-02-10 00:43:00,39.9,19.2,30.03,SW,228,5.8,8.7,43,-99.99,,,-99.99,WSDL version 423,2013-02-10 08:43:00,
2013-02-10 00:48:00,40.0,19.3,30.03,SW,231,5.8,8.7,43,-99.99,,,-99.99,WSDL version 423,2013-02-10 08:48:00,
2013-02-10 00:53:00,40.3,19.6,30.03,SW,220,5.2,9.6,43,-99.99,,,-99.99,WSDL version 423,2013-02-10 08:53:00,
2013-02-10 00:58:00,40.2,19.5,30.03,SW,219,6.4,9.6,43,-99.99,,,-99.99,WSDL version 423,2013-02-10 08:58:00,
2013-02-10 01:03:00,40.1,19.4,30.03,SW,220,6.6,9.2,43,-99.99,,,-99.99,WSDL version 423,2013-02-10 09:03:00,
2013-02-10 01:08:00,39.9,19.2,30.03,SW,217,7.7,10.1,43,-99.99,,,-99.99,WSDL version 423,2013-02-10 09:08:00,
2013-02-10 01:13:00,39.8,19.1,30.03,SSW,208,6.5,11.0,43,-99.99,,,-99.99,WSDL version 423,2013-02-10 09:13:00,
2013-02-10 01:18:00,39.6,18.9,30.03,SW,220,7.4,11.0,43,-99.99,,,-99.99,WSDL version 423,2013-02-10 09:18:00,
2013-02-10 01:23:00,39.4,19.0,30.03,SW,220,7.3,10.5,44,-99.99,,,-99.99,WSDL version 423,2013-02-10 09:23:00,
2013-02-10 01:28:00,39.2,19.1,30.03,SW,222,5.8,10.1,44,-99.99,,,-99.99,WSDL version 423,2013-02-10 09:28:00,
2013-02-10 01:33:00,39.0,19.0,30.00,SW,233,6.2,8.7,44,-99.99,,,-99.99,WSDL version 423,2013-02-10 09:33:00,
2013-02-10 01:38:00,39.0,19.0,30.00,SW,225,6.8,10.5,44,-99.99,,,-99.99,WSDL version 423,2013-02-10 09:38:00,
2013-02-10 01:43:00,38.8,18.8,30.00,SW,214,5.7,10.5,44,-99.99,,,-99.99,WSDL version 423,2013-02-10 09:43:00,
2013-02-10 01:48:00,38.7,19.2,30.00,SSW,205,4.9,8.1,45,-99.99,,,-99.99,WSDL version 423,2013-02-10 09:48:00,
2013-02-10 01:53:00,38.5,19.0,30.00,SSW,208,5.0,8.1,45,-99.99,,,-99.99,WSDL version 423,2013-02-10 09:53:00,
2013-02-10 01:58:00,38.5,19.0,30.00,SSW,208,4.0,6.7,45,-99.99,,,-99.99,WSDL version 423,2013-02-10 09:58:00,
2013-02-10 02:03:00,38.4,19.0,30.00,SSE,158,3.2,6.3,45,-99.99,,,-99.99,WSDL version 423,2013-02-10 10:03:00,
2013-02-10 02:08:00,38.1,18.6,30.00,SE,129,1.0,5.4,45,-99.99,,,-99.99,WSDL version 423,2013-02-10 10:08:00,
2013-02-10 02:13:00,37.6,18.6,30.03,ESE,113,1.2,3.1,47,-99.99,,,-99.99,WSDL version 423,2013-02-10 10:13:00,
2013-02-10 02:18:00,36.9,18.6,30.03,East,90,1.4,3.6,47,-99.99,,,-99.99,WSDL version 423,2013-02-10 10:18:00,
2013-02-10 02:23:00,36.5,18.8,30.03,East,90,2.8,3.6,49,-99.99,,,-99.99,WSDL version 423,2013-02-10 10:23:00,
2013-02-10 02:28:00,36.7,19.4,30.00,SSW,203,0.7,4.0,49,-99.99,,,-99.99,WSDL version 423,2013-02-10 10:28:00,
2013-02-10 02:33:00,36.8,19.4,30.00,South,190,1.2,4.0,49,-99.99,,,-99.99,WSDL version 423,2013-02-10 10:33:00,
2013-02-10 02:38:00,36.4,19.1,30.00,South,180,0.0,3.6,49,-99.99,,,-99.99,WSDL version 423,2013-02-10 10:38:00,
2013-02-10 02:43:00,35.9,18.7,30.03,South,180,0.0,2.7,50,-99.99,,,-99.99,WSDL version 423,2013-02-10 10:43:00,
2013-02-10 02:48:00,35.2,18.7,30.03,South,180,0.0,2.2,51,-99.99,,,-99.99,WSDL version 423,2013-02-10 10:48:00,
2013-02-10 02:53:00,35.2,18.9,30.03,South,180,0.0,2.2,51,-99.99,,,-99.99,WSDL version 423,2013-02-10 10:53:00,
2013-02-10 02:58:00,34.6,18.3,30.00,South,180,0.0,2.2,51,-99.99,,,-99.99,WSDL version 423,2013-02-10 10:58:00,
2013-02-10 03:03:00,33.9,18.1,30.00,South,180,0.0,2.7,53,-99.99,,,-99.99,WSDL version 423,2013-02-10 11:03:00,
2013-02-10 03:09:00,33.7,18.4,30.00,South,180,0.0,2.7,53,-99.99,,,-99.99,WSDL version 423,2013-02-10 11:09:00,
2013-02-10 03:14:00,33.4,18.5,30.00,South,180,0.0,2.7,54,-99.99,,,-99.99,WSDL version 423,2013-02-10 11:14:00,
2013-02-10 03:19:00,33.4,18.5,30.00,South,180,0.0,0.0,54,-99.99,,,-99.99,WSDL version 423,2013-02-10 11:19:00,
2013-02-10 03:24:00,32.9,18.1,30.00,South,180,0.0,0.0,54,-99.99,,,-99.99,WSDL version 423,2013-02-10 11:24:00,
2013-02-10 03:29:00,32.9,18.3,30.00,South,180,0.0,0.0,55,-99.99,,,-99.99,WSDL version 423,2013-02-10 11:29:00,
2013-02-10 03:34:00,33.0,18.5,30.00,South,180,0.0,0.0,55,-99.99,,,-99.99,WSDL version 423,2013-02-10 11:34:00,
2013-02-10 03:39:00,33.1,18.2,30.00,WNW,293,2.9,4.0,54,-99.99,,,-99.99,WSDL version 423,2013-02-10 11:39:00,
2013-02-10 03:44:00,33.2,18.3,30.00,WNW,293,2.5,4.9,54,-99.99,,,-99.99,WSDL version 423,2013-02-10 11:44:00,
2013-02-10 03:49:00,32.8,18.0,30.00,WNW,293,2.6,4.9,54,-99.99,,,-99.99,WSDL version 423,2013-02-10 11:49:00,
2013-02-10 03:54:00,32.7,17.9,30.00,SW,236,3.1,4.9,54,-99.99,,,-99.99,WSDL version 423,2013-02-10 11:54:00,
2013-02-10 03:59:00,32.7,18.1,30.03,SW,225,1.5,4.9,54,-99.99,,,-99.99,WSDL version 423,2013-02-10 11:59:00,
2013-02-10 04:04:00,33.0,18.3,30.03,SW,225,2.8,4.9,54,-99.99,,,-99.99,WSDL version 423,2013-02-10 12:04:00,
2013-02-10 04:09:00,33.5,18.5,30.03,SSW,203,2.4,4.9,53,-99.99,,,-99.99,WSDL version 423,2013-02-10 12:09:00,
2013-02-10 04:14:00,33.7,18.2,30.00,SSW,203,3.5,5.4,52,-99.99,,,-99.99,WSDL version 423,2013-02-10 12:14:00,
2013-02-10 04:19:00,33.7,18.0,30.00,SSW,203,0.3,5.4,52,-99.99,,,-99.99,WSDL version 423,2013-02-10 12:19:00,
2013-02-10 04:24:00,33.5,17.8,30.00,SSW,203,0.6,4.0,52,-99.99,,,-99.99,WSDL version 423,2013-02-10 12:24:00,
2013-02-10 04:29:00,33.0,17.6,30.03,SSW,203,0.0,3.1,53,-99.99,,,-99.99,WSDL version 423,2013-02-10 12:29:00,
2013-02-10 04:34:00,32.4,17.3,30.03,SSW,203,1.8,4.0,54,-99.99,,,-99.99,WSDL version 423,2013-02-10 12:34:00,
2013-02-10 04:39:00,32.1,18.1,30.03,SSW,203,0.0,4.0,55,-99.99,,,-99.99,WSDL version 423,2013-02-10 12:39:00,
2013-02-10 04:44:00,31.7,19.0,30.03,SSW,203,0.0,2.2,55,-99.99,,,-99.99,WSDL version 423,2013-02-10 12:44:00,
2013-02-10 04:49:00,31.4,19.0,30.03,SSW,203,0.0,0.0,56,-99.99,,,-99.99,WSDL version 423,2013-02-10 12:49:00,
2013-02-10 04:54:00,30.8,18.5,30.03,SSW,203,0.0,0.0,56,-99.99,,,-99.99,WSDL version 423,2013-02-10 12:54:00,
2013-02-10 04:59:00,30.2,18.1,30.03,SSW,203,0.0,0.0,57,-99.99,,,-99.99,WSDL version 423,2013-02-10 12:59:00,
2013-02-10 05:04:00,29.8,18.2,30.03,SSW,203,0.0,0.0,58,-99.99,,,-99.99,WSDL version 423,2013-02-10 13:04:00,
2013-02-10 05:09:00,29.7,18.6,30.03,SSW,203,0.0,0.0,59,-99.99,,,-99.99,WSDL version 423,2013-02-10 13:09:00,
2013-02-10 05:14:00,29.6,18.8,30.03,SSW,203,0.0,2.7,60,-99.99,,,-99.99,WSDL version 423,2013-02-10 13:14:00,
2013-02-10 05:19:00,29.6,18.7,30.03,SSW,203,0.0,2.7,60,-99.99,,,-99.99,WSDL version 423,2013-02-10 13:19:00,
2013-02-10 05:24:00,29.1,18.3,30.03,SSW,203,0.0,0.0,60,-99.99,,,-99.99,WSDL version 423,2013-02-10 13:24:00,
2013-02-10 05:29:00,29.1,18.7,30.03,SSW,203,0.0,0.0,61,-99.99,,,-99.99,WSDL version 423,2013-02-10 13:29:00,
2013-02-10 05:34:00,28.7,18.2,30.03,SSW,203,0.0,0.0,61,-99.99,,,-99.99,WSDL version 423,2013-02-10 13:34:00,
2013-02-10 05:39:00,28.8,18.7,30.03,SSW,203,0.0,0.0,62,-99.99,,,-99.99,WSDL version 423,2013-02-10 13:39:00,
2013-02-10 05:45:00,28.3,18.3,30.03,SSW,203,0.0,0.0,63,-99.99,,,-99.99,WSDL version 423,2013-02-10 13:45:00,
2013-02-10 05:50:00,28.5,18.7,30.03,SSW,203,0.0,0.0,63,-99.99,,,-99.99,WSDL version 423,2013-02-10 13:50:00,
2013-02-10 05:55:00,28.5,18.7,30.03,SSW,203,0.0,3.6,63,-99.99,,,-99.99,WSDL version 423,2013-02-10 13:55:00,
2013-02-10 06:00:00,28.9,18.7,30.03,SSW,203,1.2,3.6,62,-99.99,,,-99.99,WSDL version 423,2013-02-10 14:00:00,
2013-02-10 06:05:00,29.0,18.6,30.03,SSW,203,2.2,3.1,61,-99.99,,,-99.99,WSDL version 423,2013-02-10 14:05:00,
2013-02-10 06:10:00,29.2,18.6,30.03,SSW,203,2.6,3.6,60,-99.99,,,-99.99,WSDL version 423,2013-02-10 14:10:00,
2013-02-10 06:15:00,29.5,18.4,30.03,WSW,248,3.4,4.9,58,-99.99,,,-99.99,WSDL version 423,2013-02-10 14:15:00,
2013-02-10 06:20:00,29.9,17.8,30.03,West,270,3.4,4.9,56,-99.99,,,-99.99,WSDL version 423,2013-02-10 14:20:00,
2013-02-10 06:25:00,30.2,17.6,30.03,West,270,2.8,4.0,55,-99.99,,,-99.99,WSDL version 423,2013-02-10 14:25:00,
2013-02-10 06:30:00,30.1,17.5,30.03,West,270,2.2,4.0,55,-99.99,,,-99.99,WSDL version 423,2013-02-10 14:30:00,
2013-02-10 06:35:00,29.9,17.3,30.03,West,270,1.7,3.6,55,-99.99,,,-99.99,WSDL version 423,2013-02-10 14:35:00,
2013-02-10 06:40:00,29.8,17.2,30.03,SW,225,3.1,5.4,55,-99.99,,,-99.99,WSDL version 423,2013-02-10 14:40:00,
2013-02-10 06:45:00,30.3,17.6,30.03,SW,225,2.5,5.4,55,-99.99,,,-99.99,WSDL version 423,2013-02-10 14:45:00,
2013-02-10 06:50:00,30.3,17.5,30.03,SW,225,2.7,4.9,54,-99.99,,,-99.99,WSDL version 423,2013-02-10 14:50:00,
2013-02-10 06:55:00,30.4,17.8,30.03,SW,225,2.6,4.0,55,-99.99,,,-99.99,WSDL version 423,2013-02-10 14:55:00,
2013-02-10 07:00:00,30.8,18.2,30.03,SW,225,0.0,4.0,55,-99.99,,,-99.99,WSDL version 423,2013-02-10 15:00:00,
2013-02-10 07:05:00,31.1,18.3,30.03,SSW,203,0.0,3.1,54,-99.99,,,-99.99,WSDL version 423,2013-02-10 15:05:00,
2013-02-10 07:10:00,31.5,18.3,30.03,SSW,203,1.6,3.1,53,-99.99,,,-99.99,WSDL version 423,2013-02-10 15:10:00,
2013-02-10 07:15:00,31.4,17.9,30.03,SSW,203,0.6,3.1,53,-99.99,,,-99.99,WSDL version 423,2013-02-10 15:15:00,
2013-02-10 07:20:00,31.3,17.9,30.03,SSW,203,0.0,3.1,53,-99.99,,,-99.99,WSDL version 423,2013-02-10 15:20:00,
2013-02-10 07:25:00,31.1,17.9,30.03,SSE,165,1.9,3.1,54,-99.99,,,-99.99,WSDL version 423,2013-02-10 15:25:00,
2013-02-10 07:30:00,31.4,18.3,30.03,SE,143,0.0,3.6,54,-99.99,,,-99.99,WSDL version 423,2013-02-10 15:30:00,
2013-02-10 07:35:00,32.1,17.9,30.03,SE,135,0.0,3.6,53,-99.99,,,-99.99,WSDL version 423,2013-02-10 15:35:00,
2013-02-10 07:40:00,33.0,17.6,30.03,SE,135,0.0,2.7,52,-99.99,,,-99.99,WSDL version 423,2013-02-10 15:40:00,
2013-02-10 07:45:00,33.6,17.6,30.03,ESE,113,2.4,3.1,51,-99.99,,,-99.99,WSDL version 423,2013-02-10 15:45:00,
2013-02-10 07:50:00,34.1,17.5,30.03,ESE,113,1.4,3.1,50,-99.99,,,-99.99,WSDL version 423,2013-02-10 15:50:00,
2013-02-10 07:55:00,35.0,18.1,30.03,ESE,113,0.0,3.1,49,-99.99,,,-99.99,WSDL version 423,2013-02-10 15:55:00,
2013-02-10 08:01:00,35.7,18.0,30.03,East,90,0.0,3.1,48,-99.99,,,-99.99,WSDL version 423,2013-02-10 16:01:00,
2013-02-10 08:06:00,36.4,18.0,30.03,East,90,0.0,3.1,46,-99.99,,,-99.99,WSDL version 423,2013-02-10 16:06:00,
2013-02-10 08:11:00,37.5,18.3,30.03,East,90,0.0,0.0,45,-99.99,,,-99.99,WSDL version 423,2013-02-10 16:11:00,
2013-02-10 08:16:00,38.7,18.7,30.03,East,90,0.0,2.7,43,-99.99,,,-99.99,WSDL version 423,2013-02-10 16:16:00,
2013-02-10 08:21:00,39.9,18.9,30.03,East,90,0.0,2.7,42,-99.99,,,-99.99,WSDL version 423,2013-02-10 16:21:00,
2013-02-10 08:26:00,40.5,19.2,30.03,East,90,0.0,2.7,42,-99.99,,,-99.99,WSDL version 423,2013-02-10 16:26:00,
2013-02-10 08:31:00,40.2,18.4,30.03,NE,45,2.3,3.6,41,-99.99,,,-99.99,WSDL version 423,2013-02-10 16:31:00,
2013-02-10 08:36:00,40.2,18.3,30.03,NNE,23,3.1,4.0,41,-99.99,,,-99.99,WSDL version 423,2013-02-10 16:36:00,
2013-02-10 08:41:00,40.5,18.6,30.03,NNE,23,2.3,4.0,41,-99.99,,,-99.99,WSDL version 423,2013-02-10 16:41:00,
2013-02-10 08:46:00,40.2,18.4,30.06,NNE,23,1.9,3.6,41,-99.99,,,-99.99,WSDL version 423,2013-02-10 16:46:00,
2013-02-10 08:51:00,41.6,19.3,30.06,NNE,23,1.7,3.6,40,-99.99,,,-99.99,WSDL version 423,2013-02-10 16:51:00,
2013-02-10 08:56:00,42.1,19.5,30.06,NNE,30,2.9,4.9,40,-99.99,,,-99.99,WSDL version 423,2013-02-10 16:56:00,
2013-02-10 09:01:00,42.3,19.5,30.06,NNE,23,2.7,4.9,39,-99.99,,,-99.99,WSDL version 423,2013-02-10 17:01:00,
2013-02-10 09:06:00,42.6,19.4,30.06,NNE,23,2.0,4.9,39,-99.99,,,-99.99,WSDL version 423,2013-02-10 17:06:00,
2013-02-10 09:11:00,43.3,20.0,30.06,NNE,23,2.3,4.9,39,-99.99,,,-99.99,WSDL version 423,2013-02-10 17:11:00,
2013-02-10 09:16:00,44.0,20.4,30.06,North,5,0.9,4.9,38,-99.99,,,-99.99,WSDL version 423,2013-02-10 17:16:00,
2013-02-10 09:21:00,44.2,20.2,30.06,North,360,2.4,4.9,38,-99.99,,,-99.99,WSDL version 423,2013-02-10 17:21:00,
2013-02-10 09:26:00,44.1,20.1,30.06,NNW,338,2.6,4.0,38,-99.99,,,-99.99,WSDL version 423,2013-02-10 17:26:00,
2013-02-10 09:31:00,45.4,20.9,30.06,North,360,1.9,4.0,37,-99.99,,,-99.99,WSDL version 423,2013-02-10 17:31:00,
2013-02-10 09:36:00,45.7,20.9,30.06,North,360,0.2,4.0,37,-99.99,,,-99.99,WSDL version 423,2013-02-10 17:36:00,
2013-02-10 09:41:00,45.7,20.9,30.06,North,360,2.2,4.0,37,-99.99,,,-99.99,WSDL version 423,2013-02-10 17:41:00,
2013-02-10 09:42:00,47.3,21.0,30.06,ENE,68,3.1,4.9,35,-99.99,,,-99.99,WSDL version 423,2013-02-10 17:42:00,
2013-02-10 09:43:00,47.3,21.0,30.06,ENE,68,3.1,4.9,35,-99.99,,,-99.99,WSDL version 423,2013-02-10 17:43:00,
2013-02-10 09:44:00,47.4,21.2,30.06,ENE,68,2.9,4.9,35,-99.99,,,-99.99,WSDL version 423,2013-02-10 17:44:00,
2013-02-10 09:45:00,47.6,21.1,30.06,ENE,59,2.5,4.9,34,-99.99,,,-99.99,WSDL version 423,2013-02-10 17:45:00,
2013-02-10 09:46:00,48.0,22.4,30.06,North,360,0.0,3.1,35,-99.99,,,-99.99,WSDL version 423,2013-02-10 17:46:00,
2013-02-10 09:47:00,47.6,21.1,30.06,NNE,33,2.4,4.9,35,-99.99,,,-99.99,WSDL version 423,2013-02-10 17:47:00,
2013-02-10 09:48:00,47.9,21.2,30.06,NE,45,1.4,4.9,34,-99.99,,,-99.99,WSDL version 423,2013-02-10 17:48:00,
2013-02-10 09:49:00,48.3,21.4,30.06,ENE,78,0.2,4.9,34,-99.99,,,-99.99,WSDL version 423,2013-02-10 17:49:00,
2013-02-10 09:50:00,48.6,21.5,30.06,ESE,108,1.6,4.0,33,-99.99,,,-99.99,WSDL version 423,2013-02-10 17:50:00,
2013-02-10 09:51:00,47.4,21.2,30.06,NNE,19,3.0,4.9,35,-99.99,,,-99.99,WSDL version 423,2013-02-10 17:51:00,
2013-02-10 09:52:00,49.5,21.9,30.06,ESE,113,0.0,3.6,33,-99.99,,,-99.99,WSDL version 423,2013-02-10 17:52:00,
2013-02-10 09:53:00,49.7,21.9,30.06,East,100,1.2,4.9,33,-99.99,,,-99.99,WSDL version 423,2013-02-10 17:53:00,
2013-02-10 09:54:00,49.8,21.8,30.06,ENE,73,3.2,4.9,33,-99.99,,,-99.99,WSDL version 423,2013-02-10 17:54:00,
2013-02-10 09:55:00,49.7,21.8,30.06,NE,48,3.4,5.8,33,-99.99,,,-99.99,WSDL version 423,2013-02-10 17:55:00,
2013-02-10 09:56:00,49.4,21.5,30.06,NE,39,3.9,5.8,33,-99.99,,,-99.99,WSDL version 423,2013-02-10 17:56:00,
2013-02-10 09:57:00,48.9,21.0,30.06,NE,55,4.4,5.8,33,-99.99,,,-99.99,WSDL version 423,2013-02-10 17:57:00,
2013-02-10 09:58:00,48.6,20.8,30.06,ENE,68,4.0,5.8,33,-99.99,,,-99.99,WSDL version 423,2013-02-10 17:58:00,
2013-02-10 09:59:00,48.4,20.6,30.06,East,96,3.1,5.8,33,-99.99,,,-99.99,WSDL version 423,2013-02-10 17:59:00,
2013-02-10 10:00:00,48.4,20.6,30.06,ESE,121,2.9,5.8,33,-99.99,,,-99.99,WSDL version 423,2013-02-10 18:00:00,
2013-02-10 10:01:00,48.6,20.8,30.06,ESE,120,3.1,5.8,33,-99.99,,,-99.99,WSDL version 423,2013-02-10 18:01:00,
2013-02-10 10:02:00,49.0,21.0,30.06,ESE,113,2.9,5.8,32,-99.99,,,-99.99,WSDL version 423,2013-02-10 18:02:00,
2013-02-10 10:03:00,49.3,21.3,30.06,ESE,118,2.5,5.8,33,-99.99,,,-99.99,WSDL version 423,2013-02-10 18:03:00,
2013-02-10 10:04:00,49.5,21.3,30.06,SE,130,1.0,5.8,32,-99.99,,,-99.99,WSDL version 423,2013-02-10 18:04:00,
2013-02-10 10:05:00,49.7,21.3,30.06,SE,135,0.0,5.4,32,-99.99,,,-99.99,WSDL version 423,2013-02-10 18:05:00,
2013-02-10 10:06:00,49.9,21.3,30.06,SE,132,1.3,4.9,32,-99.99,,,-99.99,WSDL version 423,2013-02-10 18:06:00,
2013-02-10 10:07:00,49.9,21.4,30.06,SE,132,2.9,5.4,32,-99.99,,,-99.99,WSDL version 423,2013-02-10 18:07:00,
2013-02-10 10:08:00,50.0,21.3,30.06,SE,135,3.1,5.4,32,-99.99,,,-99.99,WSDL version 423,2013-02-10 18:08:00,
2013-02-10 10:09:00,50.0,21.3,30.06,SE,135,3.0,5.4,32,-99.99,,,-99.99,WSDL version 423,2013-02-10 18:09:00,
2013-02-10 10:10:00,50.1,21.3,30.06,SE,135,2.4,5.4,31,-99.99,,,-99.99,WSDL version 423,2013-02-10 18:10:00,
2013-02-10 10:11:00,50.2,21.1,30.06,SE,135,2.4,5.4,31,-99.99,,,-99.99,WSDL version 423,2013-02-10 18:11:00,
2013-02-10 10:12:00,50.3,21.1,30.06,SE,135,1.4,5.4,31,-99.99,,,-99.99,WSDL version 423,2013-02-10 18:12:00,
2013-02-10 10:13:00,50.4,21.1,30.06,SE,135,0.2,5.4,31,-99.99,,,-99.99,WSDL version 423,2013-02-10 18:13:00,
2013-02-10 10:14:00,50.5,21.0,30.06,SE,143,1.3,5.4,31,-99.99,,,-99.99,WSDL version 423,2013-02-10 18:14:00,
2013-02-10 10:15:00,50.6,20.9,30.06,SSE,155,2.5,5.4,30,-99.99,,,-99.99,WSDL version 423,2013-02-10 18:15:00,
2013-02-10 10:16:00,50.6,21.0,30.06,SSE,158,2.6,5.4,31,-99.99,,,-99.99,WSDL version 423,2013-02-10 18:16:00,
2013-02-10 10:17:00,50.7,21.0,30.06,SSE,158,1.7,4.0,31,-99.99,,,-99.99,WSDL version 423,2013-02-10 18:17:00,
2013-02-10 10:18:00,50.7,21.0,30.06,SSE,158,1.8,4.0,31,-99.99,,,-99.99,WSDL version 423,2013-02-10 18:18:00,
2013-02-10 10:19:00,50.7,20.8,30.06,SSE,158,2.3,4.0,30,-99.99,,,-99.99,WSDL version 423,2013-02-10 18:19:00,
2013-02-10 10:20:00,50.8,21.0,30.06,SE,140,1.4,5.4,31,-99.99,,,-99.99,WSDL version 423,2013-02-10 18:20:00,
2013-02-10 10:21:00,50.8,20.9,30.06,ESE,115,2.2,5.4,30,-99.99,,,-99.99,WSDL version 423,2013-02-10 18:21:00,
2013-02-10 10:22:00,50.9,21.0,30.06,SE,135,3.6,5.4,31,-99.99,,,-99.99,WSDL version 423,2013-02-10 18:22:00,
2013-02-10 10:23:00,51.0,21.0,30.06,SSE,158,3.2,5.4,31,-99.99,,,-99.99,WSDL version 423,2013-02-10 18:23:00,
2013-02-10 10:24:00,51.0,21.3,30.06,SSE,158,3.0,5.4,31,-99.99,,,-99.99,WSDL version 423,2013-02-10 18:24:00,
2013-02-10 10:25:00,51.0,21.3,30.06,SE,132,2.7,5.4,31,-99.99,,,-99.99,WSDL version 423,2013-02-10 18:25:00,
2013-02-10 10:26:00,51.1,21.2,30.06,East,100,2.9,5.4,30,-99.99,,,-99.99,WSDL version 423,2013-02-10 18:26:00,
2013-02-10 10:27:00,51.0,21.1,30.06,East,93,3.4,5.4,30,-99.99,,,-99.99,WSDL version 423,2013-02-10 18:27:00,
2013-02-10 10:28:00,51.0,20.9,30.06,ESE,104,3.6,5.4,30,-99.99,,,-99.99,WSDL version 423,2013-02-10 18:28:00,
2013-02-10 10:29:00,51.0,20.8,30.06,ESE,113,2.9,5.4,30,-99.99,,,-99.99,WSDL version 423,2013-02-10 18:29:00,
2013-02-10 10:30:00,51.1,20.8,30.06,ESE,113,1.0,5.4,30,-99.99,,,-99.99,WSDL version 423,2013-02-10 18:30:00,
2013-02-10 10:31:00,51.3,20.9,30.06,ESE,113,0.0,5.4,30,-99.99,,,-99.99,WSDL version 423,2013-02-10 18:31:00,
2013-02-10 10:32:00,51.4,21.0,30.06,ESE,113,0.0,5.4,30,-99.99,,,-99.99,WSDL version 423,2013-02-10 18:32:00,
2013-02-10 10:33:00,51.9,21.5,30.06,SE,130,0.3,5.4,30,-99.99,,,-99.99,WSDL version 423,2013-02-10 18:33:00,
2013-02-10 10:34:00,52.0,21.4,30.06,South,173,1.7,5.4,30,-99.99,,,-99.99,WSDL version 423,2013-02-10 18:34:00,
2013-02-10 10:35:00,52.1,21.3,30.06,SW,220,3.9,6.3,29,-99.99,,,-99.99,WSDL version 423,2013-02-10 18:35:00,
2013-02-10 10:36:00,52.0,21.2,30.06,SW,225,4.5,6.3,30,-99.99,,,-99.99,WSDL version 423,2013-02-10 18:36:00,
2013-02-10 10:37:00,51.9,21.2,30.06,SW,218,4.9,6.3,30,-99.99,,,-99.99,WSDL version 423,2013-02-10 18:37:00,
2013-02-10 10:38:00,51.5,20.8,30.06,South,186,4.2,6.3,30,-99.99,,,-99.99,WSDL version 423,2013-02-10 18:38:00,
2013-02-10 10:39:00,51.4,20.9,30.06,SSE,155,3.6,6.3,30,-99.99,,,-99.99,WSDL version 423,2013-02-10 18:39:00,
2013-02-10 10:40:00,51.2,20.8,30.06,SE,127,4.3,6.3,30,-99.99,,,-99.99,WSDL version 423,2013-02-10 18:40:00,
2013-02-10 10:41:00,51.2,20.8,30.06,SE,133,4.0,6.3,30,-99.99,,,-99.99,WSDL version 423,2013-02-10 18:41:00,
2013-02-10 10:42:00,51.1,20.8,30.06,South,173,3.4,6.3,30,-99.99,,,-99.99,WSDL version 423,2013-02-10 18:42:00,
2013-02-10 10:43:00,51.1,20.7,30.06,SSW,205,3.6,6.3,30,-99.99,,,-99.99,WSDL version 423,2013-02-10 18:43:00,
2013-02-10 10:44:00,51.0,20.7,30.06,SW,217,3.5,6.3,30,-99.99,,,-99.99,WSDL version 423,2013-02-10 18:44:00,
2013-02-10 10:45:00,51.1,20.8,30.06,WSW,255,2.6,6.3,30,-99.99,,,-99.99,WSDL version 423,2013-02-10 18:45:00,
2013-02-10 10:46:00,51.1,20.6,30.06,WNW,300,1.8,5.8,29,-99.99,,,-99.99,WSDL version 423,2013-02-10 18:46:00,
2013-02-10 10:47:00,51.0,20.2,30.06,NW,312,1.7,5.8,29,-99.99,,,-99.99,WSDL version 423,2013-02-10 18:47:00,
2013-02-10 10:48:00,51.1,20.2,30.03,WSW,250,1.7,5.8,29,-99.99,,,-99.99,WSDL version 423,2013-02-10 18:48:00,
2013-02-10 10:49:00,51.2,20.2,30.03,SW,215,2.5,5.8,29,-99.99,,,-99.99,WSDL version 423,2013-02-10 18:49:00,
2013-02-10 10:50:00,51.2,20.0,30.03,SW,219,3.9,5.8,29,-99.99,,,-99.99,WSDL version 423,2013-02-10 18:50:00,
2013-02-10 10:51:00,51.3,20.1,30.03,SW,219,3.9,5.8,29,-99.99,,,-99.99,WSDL version 423,2013-02-10 18:51:00,
2013-02-10 10:52:00,51.6,20.4,30.03,SSW,203,3.9,5.8,29,-99.99,,,-99.99,WSDL version 423,2013-02-10 18:52:00,
2013-02-10 10:53:00,51.6,20.4,30.03,South,170,3.8,5.8,29,-99.99,,,-99.99,WSDL version 423,2013-02-10 18:53:00,
2013-02-10 10:54:00,51.7,20.5,30.03,South,170,3.4,5.8,29,-99.99,,,-99.99,WSDL version 423,2013-02-10 18:54:00,
2013-02-10 10:55:00,51.9,20.6,30.03,South,180,3.4,5.8,29,-99.99,,,-99.99,WSDL version 423,2013-02-10 18:55:00,
2013-02-10 10:59:00,52.2,20.9,30.03,South,186,2.5,5.8,29,-99.99,,,-99.99,WSDL version 423,2013-02-10 18:59:00,
2013-02-10 11:00:00,52.2,20.9,30.03,SW,228,3.5,5.8,29,-99.99,,,-99.99,WSDL version 423,2013-02-10 19:00:00,
2013-02-10 11:01:00,52.4,21.1,30.03,SW,223,3.4,5.8,29,-99.99,,,-99.99,WSDL version 423,2013-02-10 19:01:00,
2013-02-10 11:02:00,52.6,21.2,30.03,South,188,3.1,5.4,29,-99.99,,,-99.99,WSDL version 423,2013-02-10 19:02:00,
2013-02-10 11:04:00,52.6,21.2,30.03,SW,218,3.2,5.4,29,-99.99,,,-99.99,WSDL version 423,2013-02-10 19:04:00,
2013-02-10 11:05:00,52.6,21.0,30.03,WSW,256,3.8,6.3,28,-99.99,,,-99.99,WSDL version 423,2013-02-10 19:05:00,
2013-02-10 11:06:00,52.6,20.8,30.03,WSW,238,4.1,6.3,28,-99.99,,,-99.99,WSDL version 423,2013-02-10 19:06:00,
2013-02-10 11:07:00,51.9,20.6,30.03,South,180,3.8,5.8,29,-99.99,,,-99.99,WSDL version 423,2013-02-10 19:07:00,
2013-02-10 11:11:00,52.7,20.5,30.03,SW,215,4.6,6.3,28,-99.99,,,-99.99,WSDL version 423,2013-02-10 19:11:00,
2013-02-10 11:12:00,52.7,20.5,30.03,SW,217,4.4,6.3,28,-99.99,,,-99.99,WSDL version 423,2013-02-10 19:12:00,
2013-02-10 11:14:00,52.6,21.1,30.03,South,180,3.1,5.4,28,-99.99,,,-99.99,WSDL version 423,2013-02-10 19:14:00,
2013-02-10 11:19:00,52.6,20.6,30.03,SW,220,3.1,6.3,28,-99.99,,,-99.99,WSDL version 423,2013-02-10 19:19:00,
2013-02-10 11:24:00,52.7,20.5,30.03,SW,220,2.4,6.3,28,-99.99,,,-99.99,WSDL version 423,2013-02-10 19:24:00,
2013-02-10 11:29:00,52.9,20.7,30.03,SSW,203,4.0,7.2,28,-99.99,,,-99.99,WSDL version 423,2013-02-10 19:29:00,
2013-02-10 11:34:00,53.3,21.0,30.03,SSW,200,3.4,7.2,28,-99.99,,,-99.99,WSDL version 423,2013-02-10 19:34:00,
2013-02-10 11:39:00,53.6,21.1,30.03,ENE,73,2.6,5.4,28,-99.99,,,-99.99,WSDL version 423,2013-02-10 19:39:00,
2013-02-10 11:44:00,54.1,21.4,30.03,SSE,158,0.6,5.4,28,-99.99,,,-99.99,WSDL version 423,2013-02-10 19:44:00,
2013-02-10 11:49:00,53.2,20.5,30.03,North,355,7.4,9.6,28,-99.99,,,-99.99,WSDL version 423,2013-02-10 19:49:00,
2013-02-10 11:54:00,52.5,20.3,30.03,NNW,346,1.7,9.6,28,-99.99,,,-99.99,WSDL version 423,2013-02-10 19:54:00,
2013-02-10 11:59:00,52.6,20.4,30.03,ENE,76,2.9,9.6,28,-99.99,,,-99.99,WSDL version 423,2013-02-10 19:59:00,
2013-02-10 12:04:00,53.5,21.1,30.03,NE,53,3.8,9.6,28,-99.99,,,-99.99,WSDL version 423,2013-02-10 20:04:00,
2013-02-10 12:09:00,54.1,20.9,30.03,NW,325,2.7,7.2,27,-99.99,,,-99.99,WSDL version 423,2013-02-10 20:09:00,
2013-02-10 12:14:00,53.0,20.3,30.00,NW,305,4.9,8.3,28,-99.99,,,-99.99,WSDL version 423,2013-02-10 20:14:00,
2013-02-10 12:19:00,54.0,20.9,30.00,West,276,4.7,8.3,27,-99.99,,,-99.99,WSDL version 423,2013-02-10 20:19:00,
2013-02-10 12:24:00,54.4,21.1,30.00,WNW,293,4.5,8.1,27,-99.99,,,-99.99,WSDL version 423,2013-02-10 20:24:00,
2013-02-10 12:29:00,55.1,21.7,30.00,SW,222,0.0,6.3,27,-99.99,,,-99.99,WSDL version 423,2013-02-10 20:29:00,
2013-02-10 12:34:00,56.3,22.6,30.00,East,83,2.8,4.0,26,-99.99,,,-99.99,WSDL version 423,2013-02-10 20:34:00,
2013-02-10 12:39:00,57.0,22.8,30.00,WSW,248,2.6,5.8,26,-99.99,,,-99.99,WSDL version 423,2013-02-10 20:39:00,
2013-02-10 12:43:00,56.2,21.8,30.00,East,90,3.1,6.3,26,-99.99,,,-99.99,WSDL version 423,2013-02-10 20:43:00,
2013-02-10 12:44:00,56.7,22.2,30.00,WNW,298,4.5,6.3,26,-99.99,,,-99.99,WSDL version 423,2013-02-10 20:44:00,
2013-02-10 12:45:00,56.8,22.3,30.00,East,88,1.3,6.3,26,-99.99,,,-99.99,WSDL version 423,2013-02-10 20:45:00,
2013-02-10 12:47:00,57.2,22.7,30.00,ENE,62,1.3,6.3,26,-99.99,,,-99.99,WSDL version 423,2013-02-10 20:47:00,
2013-02-10 12:48:00,57.1,22.5,30.00,NNE,19,3.2,7.6,26,-99.99,,,-99.99,WSDL version 423,2013-02-10 20:48:00,
2013-02-10 12:49:00,56.8,22.3,30.00,North,3,4.6,7.6,26,-99.99,,,-99.99,WSDL version 423,2013-02-10 20:49:00,
2013-02-10 12:50:00,55.1,21.6,30.00,ENE,68,3.3,6.3,26,-99.99,,,-99.99,WSDL version 423,2013-02-10 20:50:00,
2013-02-10 12:52:00,55.6,21.2,30.00,North,349,5.4,7.6,26,-99.99,,,-99.99,WSDL version 423,2013-02-10 20:52:00,
2013-02-10 12:53:00,55.3,21.2,30.00,NNE,33,5.6,7.6,27,-99.99,,,-99.99,WSDL version 423,2013-02-10 20:53:00,
2013-02-10 12:54:00,55.4,21.2,30.00,NE,48,4.8,7.6,26,-99.99,,,-99.99,WSDL version 423,2013-02-10 20:54:00,
2013-02-10 12:55:00,55.6,21.4,30.00,NE,53,2.0,7.6,26,-99.99,,,-99.99,WSDL version 423,2013-02-10 20:55:00,
2013-02-10 12:56:00,55.8,21.6,30.00,ENE,68,1.5,7.6,26,-99.99,,,-99.99,WSDL version 423,2013-02-10 20:56:00,
2013-02-10 12:58:00,56.4,22.0,30.00,ENE,68,0.0,7.6,26,-99.99,,,-99.99,WSDL version 423,2013-02-10 20:58:00,
2013-02-10 12:59:00,56.9,22.4,30.00,SE,127,0.0,6.7,26,-99.99,,,-99.99,WSDL version 423,2013-02-10 20:59:00,
2013-02-10 13:00:00,57.2,22.7,30.00,South,175,2.2,6.7,26,-99.99,,,-99.99,WSDL version 423,2013-02-10 21:00:00,
2013-02-10 13:01:00,57.4,22.8,30.00,SW,222,4.0,7.2,26,-99.99,,,-99.99,WSDL version 423,2013-02-10 21:01:00,
2013-02-10 13:03:00,57.2,22.7,30.00,WNW,287,6.7,8.1,26,-99.99,,,-99.99,WSDL version 423,2013-02-10 21:03:00,
2013-02-10 13:04:00,57.0,22.5,29.97,WNW,293,6.0,8.1,26,-99.99,,,-99.99,WSDL version 423,2013-02-10 21:04:00,
2013-02-10 13:05:00,56.7,22.2,29.97,WNW,290,5.6,8.1,26,-99.99,,,-99.99,WSDL version 423,2013-02-10 21:05:00,
2013-02-10 13:06:00,56.4,22.0,29.97,WNW,287,4.9,8.1,26,-99.99,,,-99.99,WSDL version 423,2013-02-10 21:06:00,
2013-02-10 13:07:00,56.4,21.9,29.97,West,280,3.8,8.1,26,-99.99,,,-99.99,WSDL version 423,2013-02-10 21:07:00,
2013-02-10 13:09:00,56.4,21.9,29.97,NW,309,4.5,9.6,26,-99.99,,,-99.99,WSDL version 423,2013-02-10 21:09:00,
2013-02-10 13:10:00,56.2,21.8,29.97,North,349,6.8,9.6,26,-99.99,,,-99.99,WSDL version 423,2013-02-10 21:10:00,
2013-02-10 13:12:00,55.8,21.4,29.97,NW,304,4.3,9.6,26,-99.99,,,-99.99,WSDL version 423,2013-02-10 21:12:00,
2013-02-10 13:13:00,55.8,21.4,29.97,WNW,298,2.0,9.6,26,-99.99,,,-99.99,WSDL version 423,2013-02-10 21:13:00,
2013-02-10 13:14:00,56.4,21.9,29.97,NW,315,2.9,9.6,26,-99.99,,,-99.99,WSDL version 423,2013-02-10 21:14:00,
2013-02-10 13:15:00,56.6,22.2,29.97,NW,309,3.1,9.6,26,-99.99,,,-99.99,WSDL version 423,2013-02-10 21:15:00,
2013-02-10 13:16:00,56.9,22.4,29.97,NNW,335,2.9,9.6,26,-99.99,,,-99.99,WSDL version 423,2013-02-10 21:16:00,
2013-02-10 13:18:00,57.1,22.6,29.97,NW,323,2.6,9.6,26,-99.99,,,-99.99,WSDL version 423,2013-02-10 21:18:00,
2013-02-10 13:19:00,57.3,22.7,29.97,SW,230,2.8,8.1,26,-99.99,,,-99.99,WSDL version 423,2013-02-10 21:19:00,
2013-02-10 13:20:00,57.6,22.8,29.97,WSW,248,3.6,5.8,25,-99.99,,,-99.99,WSDL version 423,2013-02-10 21:20:00,
2013-02-10 13:21:00,57.9,22.7,29.97,West,280,1.0,5.8,25,-99.99,,,-99.99,WSDL version 423,2013-02-10 21:21:00,
2013-02-10 13:22:00,57.8,22.4,29.97,NNW,329,1.6,7.2,25,-99.99,,,-99.99,WSDL version 423,2013-02-10 21:22:00,
2013-02-10 13:24:00,57.7,22.3,29.97,NNW,329,4.3,7.2,26,-99.99,,,-99.99,WSDL version 423,2013-02-10 21:24:00,
2013-02-10 13:25:00,57.5,22.3,29.97,NW,305,5.4,7.6,26,-99.99,,,-99.99,WSDL version 423,2013-02-10 21:25:00,
2013-02-10 13:26:00,57.1,22.2,29.97,West,270,4.3,7.6,26,-99.99,,,-99.99,WSDL version 423,2013-02-10 21:26:00,
2013-02-10 13:28:00,56.9,22.2,29.97,WNW,295,3.4,8.7,25,-99.99,,,-99.99,WSDL version 423,2013-02-10 21:28:00,
2013-02-10 13:29:00,57.0,22.1,29.97,NW,318,4.0,8.7,25,-99.99,,,-99.99,WSDL version 423,2013-02-10 21:29:00,
2013-02-10 13:30:00,56.6,21.8,29.97,NNE,23,6.5,11.0,26,-99.99,,,-99.99,WSDL version 423,2013-02-10 21:30:00,
2013-02-10 13:31:00,56.6,21.7,29.97,NE,50,6.1,11.0,26,-99.99,,,-99.99,WSDL version 423,2013-02-10 21:31:00,
2013-02-10 13:33:00,56.4,21.7,29.97,ENE,68,4.7,11.0,26,-99.99,,,-99.99,WSDL version 423,2013-02-10 21:33:00,
2013-02-10 13:34:00,56.4,21.9,29.97,ENE,65,4.9,11.0,26,-99.99,,,-99.99,WSDL version 423,2013-02-10 21:34:00,
2013-02-10 13:35:00,56.6,22.1,29.97,NE,40,4.9,11.0,26,-99.99,,,-99.99,WSDL version 423,2013-02-10 21:35:00,
2013-02-10 13:36:00,56.6,22.1,29.97,NNE,23,5.4,11.0,26,-99.99,,,-99.99,WSDL version 423,2013-02-10 21:36:00,
2013-02-10 13:37:00,56.6,22.1,29.97,NE,48,5.4,11.0,26,-99.99,,,-99.99,WSDL version 423,2013-02-10 21:37:00,
2013-02-10 13:38:00,56.6,22.1,29.97,ENE,63,4.2,11.0,26,-99.99,,,-99.99,WSDL version 423,2013-02-10 21:38:00,
2013-02-10 13:39:00,56.7,22.2,29.97,NE,40,3.0,7.6,26,-99.99,,,-99.99,WSDL version 423,2013-02-10 21:39:00,
2013-02-10 13:40:00,56.8,22.1,29.97,North,357,2.7,7.6,25,-99.99,,,-99.99,WSDL version 423,2013-02-10 21:40:00,
2013-02-10 13:41:00,56.8,22.2,29.97,North,355,4.0,7.6,26,-99.99,,,-99.99,WSDL version 423,2013-02-10 21:41:00,
2013-02-10 13:42:00,56.9,22.2,29.97,North,355,5.2,7.6,26,-99.99,,,-99.99,WSDL version 423,2013-02-10 21:42:00,
2013-02-10 13:43:00,56.8,22.1,29.97,NNW,331,5.6,7.6,26,-99.99,,,-99.99,WSDL version 423,2013-02-10 21:43:00,
2013-02-10 13:44:00,56.8,22.1,29.97,North,3,4.7,7.6,26,-99.99,,,-99.99,WSDL version 423,2013-02-10 21:44:00,
2013-02-10 13:45:00,56.7,22.2,29.97,ENE,65,4.0,7.6,26,-99.99,,,-99.99,WSDL version 423,2013-02-10 21:45:00,
2013-02-10 13:46:00,56.7,22.1,29.97,East,84,3.1,7.6,25,-99.99,,,-99.99,WSDL version 423,2013-02-10 21:46:00,
2013-02-10 13:47:00,56.8,22.1,29.97,NW,312,3.8,8.1,26,-99.99,,,-99.99,WSDL version 423,2013-02-10 21:47:00,
2013-02-10 13:48:00,56.9,22.2,29.97,WSW,255,5.6,8.1,26,-99.99,,,-99.99,WSDL version 423,2013-02-10 21:48:00,
2013-02-10 13:49:00,57.1,22.2,29.97,West,273,5.0,8.1,25,-99.99,,,-99.99,WSDL version 423,2013-02-10 21:49:00,
2013-02-10 13:50:00,57.2,22.1,29.97,NNW,332,4.0,8.1,25,-99.99,,,-99.99,WSDL version 423,2013-02-10 21:50:00,
2013-02-10 13:51:00,57.2,22.1,29.97,NNW,340,4.5,8.1,25,-99.99,,,-99.99,WSDL version 423,2013-02-10 21:51:00,
2013-02-10 13:52:00,57.2,22.0,29.97,North,350,4.7,8.1,26,-99.99,,,-99.99,WSDL version 423,2013-02-10 21:52:00,
2013-02-10 13:53:00,57.2,22.0,29.97,North,360,4.3,8.1,26,-99.99,,,-99.99,WSDL version 423,2013-02-10 21:53:00,
2013-02-10 13:54:00,57.1,22.0,29.97,North,360,3.1,8.1,25,-99.99,,,-99.99,WSDL version 423,2013-02-10 21:54:00,
2013-02-10 13:55:00,57.2,22.0,29.97,NNW,343,1.2,8.1,25,-99.99,,,-99.99,WSDL version 423,2013-02-10 21:55:00,
2013-02-10 13:56:00,57.4,22.2,29.97,North,350,0.0,8.1,25,-99.99,,,-99.99,WSDL version 423,2013-02-10 21:56:00,
2013-02-10 13:57:00,57.7,22.3,29.97,NNE,16,0.0,8.1,25,-99.99,,,-99.99,WSDL version 423,2013-02-10 21:57:00,
2013-02-10 13:58:00,58.0,22.4,29.97,NE,39,0.0,7.2,25,-99.99,,,-99.99,WSDL version 423,2013-02-10 21:58:00,
2013-02-10 13:59:00,58.2,22.5,29.97,NE,45,1.2,7.2,25,-99.99,,,-99.99,WSDL version 423,2013-02-10 21:59:00,
2013-02-10 14:00:00,58.4,22.8,29.97,NE,55,1.2,7.2,25,-99.99,,,-99.99,WSDL version 423,2013-02-10 22:00:00,
2013-02-10 14:02:00,58.6,22.9,29.97,East,84,0.0,5.4,25,-99.99,,,-99.99,WSDL version 423,2013-02-10 22:02:00,
2013-02-10 14:09:00,59.6,23.7,29.94,SSW,203,3.4,6.3,25,-99.99,,,-99.99,WSDL version 423,2013-02-10 22:09:00,
2013-02-10 14:12:00,59.5,23.7,29.94,SE,129,1.0,6.3,25,-99.99,,,-99.99,WSDL version 423,2013-02-10 22:12:00,
2013-02-10 14:14:00,59.1,23.3,29.94,ESE,120,2.6,4.0,25,-99.99,,,-99.99,WSDL version 423,2013-02-10 22:14:00,
2013-02-10 14:19:00,59.6,23.8,29.94,SSW,205,4.9,6.3,25,-99.99,,,-99.99,WSDL version 423,2013-02-10 22:19:00,
2013-02-10 14:23:00,57.5,22.0,29.94,WSW,255,2.9,10.1,25,-99.99,,,-99.99,WSDL version 423,2013-02-10 22:23:00,
2013-02-10 14:24:00,59.6,23.8,29.94,East,88,2.0,6.3,25,-99.99,,,-99.99,WSDL version 423,2013-02-10 22:24:00,
2013-02-10 14:29:00,58.9,23.1,29.94,West,276,4.3,10.1,25,-99.99,,,-99.99,WSDL version 423,2013-02-10 22:29:00,
2013-02-10 14:35:00,57.4,21.9,29.94,SW,220,2.7,6.3,25,-99.99,,,-99.99,WSDL version 423,2013-02-10 22:35:00,
2013-02-10 14:40:00,56.5,21.1,29.94,SW,233,4.6,7.2,25,-99.99,,,-99.99,WSDL version 423,2013-02-10 22:40:00,
2013-02-10 14:45:00,56.1,20.8,29.94,West,278,3.9,7.2,25,-99.99,,,-99.99,WSDL version 423,2013-02-10 22:45:00,
2013-02-10 14:50:00,55.8,20.5,29.94,SSE,158,1.3,5.8,25,-99.99,,,-99.99,WSDL version 423,2013-02-10 22:50:00,
2013-02-10 14:55:00,55.9,20.6,29.94,WSW,256,3.5,5.4,25,-99.99,,,-99.99,WSDL version 423,2013-02-10 22:55:00,
2013-02-10 15:00:00,56.2,20.9,29.94,SSW,208,5.7,8.1,25,-99.99,,,-99.99,WSDL version 423,2013-02-10 23:00:00,
2013-02-10 15:05:00,55.8,20.5,29.94,SSW,211,5.0,8.1,25,-99.99,,,-99.99,WSDL version 423,2013-02-10 23:05:00,
2013-02-10 15:10:00,55.1,20.8,29.94,SW,217,4.1,7.6,26,-99.99,,,-99.99,WSDL version 423,2013-02-10 23:10:00,
2013-02-10 15:15:00,54.8,20.6,29.94,SSW,208,5.1,7.2,26,-99.99,,,-99.99,WSDL version 423,2013-02-10 23:15:00,
2013-02-10 15:20:00,54.6,20.4,29.94,SSW,206,5.0,7.6,26,-99.99,,,-99.99,WSDL version 423,2013-02-10 23:20:00,
2013-02-10 15:25:00,54.5,20.3,29.94,WSW,255,5.1,8.1,26,-99.99,,,-99.99,WSDL version 423,2013-02-10 23:25:00,
2013-02-10 15:30:00,54.5,20.3,29.94,SW,236,4.4,8.1,26,-99.99,,,-99.99,WSDL version 423,2013-02-10 23:30:00,
2013-02-10 15:35:00,54.4,20.2,29.94,SSW,211,3.8,5.8,26,-99.99,,,-99.99,WSDL version 423,2013-02-10 23:35:00,
2013-02-10 15:40:00,54.5,20.3,29.94,West,270,3.2,5.4,26,-99.99,,,-99.99,WSDL version 423,2013-02-10 23:40:00,
2013-02-10 15:45:00,54.3,20.2,29.94,SSW,205,3.5,6.3,26,-99.99,,,-99.99,WSDL version 423,2013-02-10 23:45:00,
2013-02-10 15:50:00,54.3,20.1,29.94,SW,236,4.5,6.3,26,-99.99,,,-99.99,WSDL version 423,2013-02-10 23:50:00,
2013-02-10 15:55:00,54.2,20.1,29.94,SSW,203,2.3,7.6,26,-99.99,,,-99.99,WSDL version 423,2013-02-10 23:55:00,
2013-02-10 16:00:00,54.3,20.1,29.94,WSW,239,3.7,7.6,26,-99.99,,,-99.99,WSDL version 423,2013-02-11 00:00:00,
2013-02-10 16:05:00,54.4,20.3,29.94,SSW,208,3.0,4.9,26,-99.99,,,-99.99,WSDL version 423,2013-02-11 00:05:00,
2013-02-10 16:10:00,55.2,20.6,29.94,West,270,4.0,7.2,25,-99.99,,,-99.99,WSDL version 423,2013-02-11 00:10:00,
2013-02-10 16:15:00,56.2,20.8,29.94,SSW,203,4.0,7.2,25,-99.99,,,-99.99,WSDL version 423,2013-02-11 00:15:00,
2013-02-10 16:20:00,56.4,21.0,29.94,South,180,4.5,6.3,25,-99.99,,,-99.99,WSDL version 423,2013-02-11 00:20:00,
2013-02-10 16:25:00,56.6,21.2,29.94,South,170,3.4,6.7,25,-99.99,,,-99.99,WSDL version 423,2013-02-11 00:25:00,
2013-02-10 16:30:00,56.5,21.1,29.94,South,170,4.0,6.7,25,-99.99,,,-99.99,WSDL version 423,2013-02-11 00:30:00,
2013-02-10 16:35:00,56.5,21.1,29.94,ESE,115,2.8,7.6,25,-99.99,,,-99.99,WSDL version 423,2013-02-11 00:35:00,
2013-02-10 16:40:00,56.6,21.2,29.94,SSE,168,4.2,7.6,25,-99.99,,,-99.99,WSDL version 423,2013-02-11 00:40:00,
2013-02-10 16:45:00,56.4,21.0,29.94,SE,135,2.7,5.8,25,-99.99,,,-99.99,WSDL version 423,2013-02-11 00:45:00,
2013-02-10 16:46:00,56.2,20.9,29.94,SSE,158,2.2,4.9,25,-99.99,,,-99.99,WSDL version 423,2013-02-11 00:46:00,
2013-02-10 16:47:00,56.2,20.9,29.94,SSE,158,2.2,4.9,25,-99.99,,,-99.99,WSDL version 423,2013-02-11 00:47:00,
2013-02-10 16:48:00,56.2,20.9,29.94,SSE,158,1.0,4.9,25,-99.99,,,-99.99,WSDL version 423,2013-02-11 00:48:00,
2013-02-10 16:49:00,56.3,20.9,29.94,SSE,158,0.8,4.9,25,-99.99,,,-99.99,WSDL version 423,2013-02-11 00:49:00,
2013-02-10 16:50:00,56.2,20.9,29.94,SSE,158,2.7,4.0,25,-99.99,,,-99.99,WSDL version 423,2013-02-11 00:50:00,
2013-02-10 16:51:00,56.4,21.0,29.94,South,178,2.5,5.8,25,-99.99,,,-99.99,WSDL version 423,2013-02-11 00:51:00,
2013-02-10 16:52:00,56.2,20.8,29.94,SSE,158,1.0,3.6,25,-99.99,,,-99.99,WSDL version 423,2013-02-11 00:52:00,
2013-02-10 16:53:00,56.1,20.8,29.94,SSE,158,0.0,3.6,25,-99.99,,,-99.99,WSDL version 423,2013-02-11 00:53:00,
2013-02-10 16:54:00,56.0,20.7,29.94,SSE,158,0.0,3.6,25,-99.99,,,-99.99,WSDL version 423,2013-02-11 00:54:00,
2013-02-10 16:55:00,55.9,20.6,29.94,SSE,158,0.0,3.6,25,-99.99,,,-99.99,WSDL version 423,2013-02-11 00:55:00,
2013-02-10 16:56:00,55.8,20.5,29.94,SSE,158,1.2,3.6,25,-99.99,,,-99.99,WSDL version 423,2013-02-11 00:56:00,
2013-02-10 16:57:00,55.7,20.6,29.94,SSE,163,2.0,3.6,26,-99.99,,,-99.99,WSDL version 423,2013-02-11 00:57:00,
2013-02-10 16:58:00,55.5,20.6,29.94,South,174,0.8,3.6,26,-99.99,,,-99.99,WSDL version 423,2013-02-11 00:58:00,
2013-02-10 16:59:00,55.3,20.6,29.94,South,180,0.3,4.0,26,-99.99,,,-99.99,WSDL version 423,2013-02-11 00:59:00,
2013-02-10 17:00:00,55.1,20.6,29.94,South,180,1.6,4.0,26,-99.99,,,-99.99,WSDL version 423,2013-02-11 01:00:00,
2013-02-10 17:01:00,54.9,20.6,29.94,South,180,2.7,4.0,26,-99.99,,,-99.99,WSDL version 423,2013-02-11 01:01:00,
2013-02-10 17:02:00,54.7,20.5,29.94,South,180,2.8,4.0,26,-99.99,,,-99.99,WSDL version 423,2013-02-11 01:02:00,
2013-02-10 17:03:00,54.7,20.5,29.94,South,188,3.4,4.9,26,-99.99,,,-99.99,WSDL version 423,2013-02-11 01:03:00,
2013-02-10 17:04:00,54.6,20.4,29.94,SSW,200,3.9,4.9,26,-99.99,,,-99.99,WSDL version 423,2013-02-11 01:04:00,
2013-02-10 17:05:00,54.4,20.3,29.94,SSW,203,4.0,4.9,26,-99.99,,,-99.99,WSDL version 423,2013-02-11 01:05:00,
2013-02-10 17:06:00,54.3,20.2,29.94,SSW,203,3.7,4.9,26,-99.99,,,-99.99,WSDL version 423,2013-02-11 01:06:00,
2013-02-10 17:07:00,54.2,20.1,29.94,SSW,203,3.0,4.9,26,-99.99,,,-99.99,WSDL version 423,2013-02-11 01:07:00,
2013-02-10 17:08:00,54.1,20.0,29.94,SSW,203,1.5,4.9,26,-99.99,,,-99.99,WSDL version 423,2013-02-11 01:08:00,
2013-02-10 17:09:00,54.0,19.9,29.94,SSW,203,1.7,4.9,26,-99.99,,,-99.99,WSDL version 423,2013-02-11 01:09:00,
2013-02-10 17:10:00,53.9,19.8,29.94,SW,215,3.5,8.1,26,-99.99,,,-99.99,WSDL version 423,2013-02-11 01:10:00,
2013-02-10 17:11:00,53.8,19.8,29.94,SW,215,5.0,8.1,26,-99.99,,,-99.99,WSDL version 423,2013-02-11 01:11:00,
2013-02-10 17:12:00,53.8,19.7,29.94,SSW,203,4.8,8.1,26,-99.99,,,-99.99,WSDL version 423,2013-02-11 01:12:00,
2013-02-10 17:13:00,53.7,19.6,29.94,SSW,203,3.6,8.1,26,-99.99,,,-99.99,WSDL version 423,2013-02-11 01:13:00,
2013-02-10 17:14:00,53.6,19.6,29.94,SSW,208,3.6,8.1,26,-99.99,,,-99.99,WSDL version 423,2013-02-11 01:14:00,
2013-02-10 17:15:00,53.5,19.5,29.94,SSW,208,4.0,8.1,26,-99.99,,,-99.99,WSDL version 423,2013-02-11 01:15:00,
2013-02-10 17:16:00,53.5,19.5,29.94,SSW,203,4.6,8.1,26,-99.99,,,-99.99,WSDL version 423,2013-02-11 01:16:00,
2013-02-10 17:17:00,53.4,19.4,29.94,SW,214,4.4,8.1,26,-99.99,,,-99.99,WSDL version 423,2013-02-11 01:17:00,
2013-02-10 17:18:00,53.4,19.4,29.94,SW,225,3.5,8.1,26,-99.99,,,-99.99,WSDL version 423,2013-02-11 01:18:00,
2013-02-10 17:19:00,53.3,19.3,29.94,SW,225,3.4,8.1,26,-99.99,,,-99.99,WSDL version 423,2013-02-11 01:19:00,
2013-02-10 17:20:00,53.2,19.2,29.94,SW,222,3.6,6.3,26,-99.99,,,-99.99,WSDL version 423,2013-02-11 01:20:00,
2013-02-10 17:21:00,53.2,19.2,29.94,SSW,210,4.0,6.3,26,-99.99,,,-99.99,WSDL version 423,2013-02-11 01:21:00,
2013-02-10 17:22:00,53.1,19.1,29.94,SSW,203,4.3,6.3,26,-99.99,,,-99.99,WSDL version 423,2013-02-11 01:22:00,
2013-02-10 17:23:00,53.1,19.1,29.94,SSW,203,4.4,6.3,26,-99.99,,,-99.99,WSDL version 423,2013-02-11 01:23:00,
2013-02-10 17:24:00,53.1,19.1,29.94,SSW,203,3.9,6.3,26,-99.99,,,-99.99,WSDL version 423,2013-02-11 01:24:00,
2013-02-10 17:25:00,53.1,19.1,29.94,SSW,203,3.6,5.4,26,-99.99,,,-99.99,WSDL version 423,2013-02-11 01:25:00,
2013-02-10 17:26:00,53.1,19.1,29.94,SSW,205,3.8,5.8,26,-99.99,,,-99.99,WSDL version 423,2013-02-11 01:26:00,
2013-02-10 17:27:00,53.0,19.1,29.94,SSW,211,4.4,5.8,26,-99.99,,,-99.99,WSDL version 423,2013-02-11 01:27:00,
2013-02-10 17:28:00,53.0,19.0,29.94,SSW,208,4.9,5.8,26,-99.99,,,-99.99,WSDL version 423,2013-02-11 01:28:00,
2013-02-10 17:29:00,53.0,19.0,29.94,SSW,203,4.7,5.8,26,-99.99,,,-99.99,WSDL version 423,2013-02-11 01:29:00,
2013-02-10 17:30:00,52.9,18.9,29.94,SSW,203,4.0,5.8,26,-99.99,,,-99.99,WSDL version 423,2013-02-11 01:30:00,
2013-02-10 17:31:00,52.8,18.9,29.94,SSW,203,3.5,5.8,26,-99.99,,,-99.99,WSDL version 423,2013-02-11 01:31:00,
2013-02-10 17:32:00,52.8,18.9,29.94,SSW,205,3.8,5.8,26,-99.99,,,-99.99,WSDL version 423,2013-02-11 01:32:00,
2013-02-10 17:33:00,52.8,18.8,29.94,SSW,210,4.3,6.3,26,-99.99,,,-99.99,WSDL version 423,2013-02-11 01:33:00,
2013-02-10 17:34:00,52.7,18.8,29.94,SSW,208,4.5,6.3,26,-99.99,,,-99.99,WSDL version 423,2013-02-11 01:34:00,
2013-02-10 17:35:00,52.6,18.7,29.94,SSW,210,4.5,6.3,26,-99.99,,,-99.99,WSDL version 423,2013-02-11 01:35:00,
2013-02-10 17:36:00,52.6,18.7,29.94,SSW,210,4.2,6.3,26,-99.99,,,-99.99,WSDL version 423,2013-02-11 01:36:00,
2013-02-10 17:37:00,52.5,18.6,29.94,SSW,211,4.2,6.3,26,-99.99,,,-99.99,WSDL version 423,2013-02-11 01:37:00,
2013-02-10 17:38:00,52.4,18.6,29.94,SSW,208,4.2,6.3,26,-99.99,,,-99.99,WSDL version 423,2013-02-11 01:38:00,
2013-02-10 17:39:00,52.4,18.5,29.94,SSW,205,3.9,6.3,26,-99.99,,,-99.99,WSDL version 423,2013-02-11 01:39:00,
2013-02-10 17:40:00,52.3,18.5,29.94,SSW,208,4.0,6.3,26,-99.99,,,-99.99,WSDL version 423,2013-02-11 01:40:00,
2013-02-10 17:41:00,52.3,18.4,29.94,SSW,203,4.6,6.3,26,-99.99,,,-99.99,WSDL version 423,2013-02-11 01:41:00,
2013-02-10 17:42:00,52.2,18.3,29.94,SSW,203,4.7,6.3,26,-99.99,,,-99.99,WSDL version 423,2013-02-11 01:42:00,
2013-02-10 17:43:00,52.1,18.3,29.94,SSW,200,4.3,7.2,26,-99.99,,,-99.99,WSDL version 423,2013-02-11 01:43:00,
2013-02-10 17:44:00,52.0,18.2,29.94,SSW,198,4.5,8.3,26,-99.99,,,-99.99,WSDL version 423,2013-02-11 01:44:00,
2013-02-10 17:45:00,52.0,18.1,29.94,SSW,203,5.2,8.3,26,-99.99,,,-99.99,WSDL version 423,2013-02-11 01:45:00,
2013-02-10 17:46:00,51.9,18.1,29.94,SSW,206,5.0,8.3,26,-99.99,,,-99.99,WSDL version 423,2013-02-11 01:46:00,
2013-02-10 17:47:00,51.9,18.1,29.94,SSW,198,4.3,8.3,26,-99.99,,,-99.99,WSDL version 423,2013-02-11 01:47:00,
2013-02-10 17:48:00,51.8,18.2,29.94,SSW,193,4.7,8.3,27,-99.99,,,-99.99,WSDL version 423,2013-02-11 01:48:00,
2013-02-10 17:49:00,51.8,18.2,29.94,SSW,200,5.6,8.3,26,-99.99,,,-99.99,WSDL version 423,2013-02-11 01:49:00,
2013-02-10 17:50:00,51.8,18.2,29.94,SSW,208,5.3,8.3,26,-99.99,,,-99.99,WSDL version 423,2013-02-11 01:50:00,
2013-02-10 17:51:00,51.7,18.4,29.94,SW,215,4.8,8.3,27,-99.99,,,-99.99,WSDL version 423,2013-02-11 01:51:00,
2013-02-10 17:52:00,51.7,18.5,29.94,SW,225,4.7,8.3,27,-99.99,,,-99.99,WSDL version 423,2013-02-11 01:52:00,
2013-02-10 17:54:00,51.6,18.6,29.94,SW,228,4.7,8.1,27,-99.99,,,-99.99,WSDL version 423,2013-02-11 01:54:00,
2013-02-10 18:02:00,51.0,19.5,29.94,SW,225,5.9,10.1,29,-99.99,,,-99.99,WSDL version 423,2013-02-11 02:02:00,
2013-02-10 18:03:00,51.7,18.5,29.94,SW,228,4.7,8.3,27,-99.99,,,-99.99,WSDL version 423,2013-02-11 02:03:00,
2013-02-10 18:04:00,50.8,20.0,29.94,SW,228,6.6,10.1,30,-99.99,,,-99.99,WSDL version 423,2013-02-11 02:04:00,
2013-02-10 18:05:00,50.8,20.1,29.94,SW,223,6.4,10.1,30,-99.99,,,-99.99,WSDL version 423,2013-02-11 02:05:00,
2013-02-10 18:07:00,50.6,20.4,29.94,SW,228,5.4,8.7,31,-99.99,,,-99.99,WSDL version 423,2013-02-11 02:07:00,
2013-02-10 18:08:00,51.3,18.8,29.94,SSW,210,7.1,10.1,28,-99.99,,,-99.99,WSDL version 423,2013-02-11 02:08:00,
2013-02-10 18:12:00,50.3,20.8,29.94,SW,228,3.7,8.3,31,-99.99,,,-99.99,WSDL version 423,2013-02-11 02:12:00,
2013-02-10 18:16:00,50.7,20.2,29.94,SW,225,5.9,10.1,30,-99.99,,,-99.99,WSDL version 423,2013-02-11 02:16:00,
2013-02-10 18:17:00,50.1,21.4,29.94,SSW,211,6.7,8.7,32,-99.99,,,-99.99,WSDL version 423,2013-02-11 02:17:00,
2013-02-10 18:19:00,50.0,21.3,29.97,SW,223,6.2,8.7,32,-99.99,,,-99.99,WSDL version 423,2013-02-11 02:19:00,
2013-02-10 18:20:00,50.0,21.4,29.97,SW,235,5.9,8.7,33,-99.99,,,-99.99,WSDL version 423,2013-02-11 02:20:00,
2013-02-10 18:21:00,50.4,20.9,29.94,SW,233,3.6,8.7,31,-99.99,,,-99.99,WSDL version 423,2013-02-11 02:21:00,
2013-02-10 18:23:00,49.9,21.7,29.97,SW,223,6.1,8.7,33,-99.99,,,-99.99,WSDL version 423,2013-02-11 02:23:00,
2013-02-10 18:26:00,49.7,21.8,29.97,SW,220,6.1,8.7,33,-99.99,,,-99.99,WSDL version 423,2013-02-11 02:26:00,
2013-02-10 18:27:00,49.7,21.8,29.97,SW,215,6.5,8.7,33,-99.99,,,-99.99,WSDL version 423,2013-02-11 02:27:00,
2013-02-10 18:28:00,50.0,21.3,29.97,SSW,212,6.1,8.7,32,-99.99,,,-99.99,WSDL version 423,2013-02-11 02:28:00,
2013-02-10 18:34:00,49.8,21.8,29.97,SW,218,6.4,8.7,33,-99.99,,,-99.99,WSDL version 423,2013-02-11 02:34:00,
2013-02-10 18:39:00,49.6,21.7,29.97,SSW,212,6.4,8.7,33,-99.99,,,-99.99,WSDL version 423,2013-02-11 02:39:00,
2013-02-10 18:44:00,49.5,21.6,29.94,WSW,240,7.7,11.0,33,-99.99,,,-99.99,WSDL version 423,2013-02-11 02:44:00,
2013-02-10 18:49:00,49.4,21.5,29.94,SSW,200,7.1,11.0,33,-99.99,,,-99.99,WSDL version 423,2013-02-11 02:49:00,
2013-02-10 18:54:00,49.3,21.4,29.94,SSW,198,7.2,10.5,33,-99.99,,,-99.99,WSDL version 423,2013-02-11 02:54:00,
2013-02-10 18:59:00,49.0,21.2,29.97,South,188,4.7,10.1,33,-99.99,,,-99.99,WSDL version 423,2013-02-11 02:59:00,
2013-02-10 19:04:00,48.8,21.0,29.97,SSW,203,4.4,9.6,33,-99.99,,,-99.99,WSDL version 423,2013-02-11 03:04:00,
2013-02-10 19:09:00,48.5,20.7,29.97,South,170,2.6,7.6,33,-99.99,,,-99.99,WSDL version 423,2013-02-11 03:09:00,
2013-02-10 19:14:00,48.2,20.7,29.97,SSE,158,3.1,5.4,34,-99.99,,,-99.99,WSDL version 423,2013-02-11 03:14:00,
2013-02-10 19:19:00,47.9,20.9,29.97,East,90,3.2,4.9,34,-99.99,,,-99.99,WSDL version 423,2013-02-11 03:19:00,
2013-02-10 19:24:00,47.8,20.8,29.97,ENE,73,3.8,5.4,34,-99.99,,,-99.99,WSDL version 423,2013-02-11 03:24:00,
2013-02-10 19:30:00,47.8,21.2,30.00,ENE,73,4.7,7.2,35,-99.99,,,-99.99,WSDL version 423,2013-02-11 03:30:00,
2013-02-10 19:35:00,47.8,21.5,30.00,East,90,5.1,8.7,35,-99.99,,,-99.99,WSDL version 423,2013-02-11 03:35:00,
2013-02-10 19:40:00,48.4,21.4,30.00,ENE,78,3.8,8.7,34,-99.99,,,-99.99,WSDL version 423,2013-02-11 03:40:00,
2013-02-10 19:45:00,48.7,21.4,30.00,ENE,62,2.7,7.6,33,-99.99,,,-99.99,WSDL version 423,2013-02-11 03:45:00,
2013-02-10 19:46:00,49.5,20.1,30.00,ENE,68,3.4,7.2,31,-99.99,,,-99.99,WSDL version 423,2013-02-11 03:46:00,
2013-02-10 19:47:00,49.5,20.1,30.00,ENE,68,3.8,7.2,31,-99.99,,,-99.99,WSDL version 423,2013-02-11 03:47:00,
2013-02-10 19:48:00,49.5,20.1,30.00,ENE,68,3.3,7.2,31,-99.99,,,-99.99,WSDL version 423,2013-02-11 03:48:00,
2013-02-10 19:49:00,49.5,20.1,30.00,ENE,68,2.7,5.8,31,-99.99,,,-99.99,WSDL version 423,2013-02-11 03:49:00,
2013-02-10 19:50:00,49.4,20.7,30.00,NE,51,3.3,7.2,32,-99.99,,,-99.99,WSDL version 423,2013-02-11 03:50:00,
2013-02-10 19:51:00,49.5,20.1,30.00,ENE,70,2.8,4.9,31,-99.99,,,-99.99,WSDL version 423,2013-02-11 03:51:00,
2013-02-10 19:52:00,49.4,20.0,30.00,East,80,3.3,4.9,31,-99.99,,,-99.99,WSDL version 423,2013-02-11 03:52:00,
2013-02-10 19:53:00,49.4,20.0,30.00,East,84,3.6,6.7,31,-99.99,,,-99.99,WSDL version 423,2013-02-11 03:53:00,
2013-02-10 19:54:00,49.3,20.0,30.00,East,79,4.0,6.7,31,-99.99,,,-99.99,WSDL version 423,2013-02-11 03:54:00,
2013-02-10 19:55:00,49.6,20.2,30.00,ENE,78,3.1,7.2,31,-99.99,,,-99.99,WSDL version 423,2013-02-11 03:55:00,
2013-02-10 19:56:00,49.3,20.0,30.00,East,84,5.2,8.1,31,-99.99,,,-99.99,WSDL version 423,2013-02-11 03:56:00,
2013-02-10 19:57:00,49.3,20.0,30.00,East,93,6.2,8.7,31,-99.99,,,-99.99,WSDL version 423,2013-02-11 03:57:00,
2013-02-10 19:58:00,49.4,20.0,30.00,East,90,6.7,8.7,31,-99.99,,,-99.99,WSDL version 423,2013-02-11 03:58:00,
2013-02-10 19:59:00,49.4,20.0,30.00,East,90,6.6,8.7,31,-99.99,,,-99.99,WSDL version 423,2013-02-11 03:59:00,
2013-02-10 20:00:00,49.5,20.1,30.00,East,96,6.7,8.7,31,-99.99,,,-99.99,WSDL version 423,2013-02-11 04:00:00,
2013-02-10 20:01:00,49.5,20.1,30.00,East,93,6.3,8.7,31,-99.99,,,-99.99,WSDL version 423,2013-02-11 04:01:00,
2013-02-10 20:02:00,49.5,20.1,30.00,East,95,5.7,8.7,31,-99.99,,,-99.99,WSDL version 423,2013-02-11 04:02:00,
2013-02-10 20:03:00,49.5,20.1,30.00,East,93,5.2,8.7,31,-99.99,,,-99.99,WSDL version 423,2013-02-11 04:03:00,
2013-02-10 20:04:00,49.5,20.1,30.00,East,79,4.6,8.7,31,-99.99,,,-99.99,WSDL version 423,2013-02-11 04:04:00,
2013-02-10 20:05:00,49.5,20.1,30.00,ENE,63,4.1,8.7,31,-99.99,,,-99.99,WSDL version 423,2013-02-11 04:05:00,
2013-02-10 20:06:00,49.4,20.1,30.00,ENE,63,4.0,8.7,31,-99.99,,,-99.99,WSDL version 423,2013-02-11 04:06:00,
2013-02-10 20:07:00,49.4,20.0,30.00,ENE,68,4.0,8.7,31,-99.99,,,-99.99,WSDL version 423,2013-02-11 04:07:00,
2013-02-10 20:08:00,49.4,20.0,30.00,NE,56,3.7,8.7,31,-99.99,,,-99.99,WSDL version 423,2013-02-11 04:08:00,
2013-02-10 20:09:00,49.3,20.0,30.00,NE,42,3.5,8.7,31,-99.99,,,-99.99,WSDL version 423,2013-02-11 04:09:00,
2013-02-10 20:10:00,49.3,19.9,30.00,NE,40,3.4,8.7,31,-99.99,,,-99.99,WSDL version 423,2013-02-11 04:10:00,
2013-02-10 20:11:00,49.3,19.9,30.00,NE,43,3.5,5.8,31,-99.99,,,-99.99,WSDL version 423,2013-02-11 04:11:00,
2013-02-10 20:12:00,49.3,19.9,30.00,NE,45,3.0,5.8,31,-99.99,,,-99.99,WSDL version 423,2013-02-11 04:12:00,
2013-02-10 20:13:00,49.2,19.9,30.00,NE,34,2.5,5.8,31,-99.99,,,-99.99,WSDL version 423,2013-02-11 04:13:00,
2013-02-10 20:14:00,49.2,19.9,30.00,NNE,25,1.9,5.8,31,-99.99,,,-99.99,WSDL version 423,2013-02-11 04:14:00,
2013-02-10 20:15:00,49.1,19.7,30.00,NNE,14,1.1,5.4,30,-99.99,,,-99.99,WSDL version 423,2013-02-11 04:15:00,
2013-02-10 20:16:00,49.1,19.4,30.00,North,3,2.6,5.8,30,-99.99,,,-99.99,WSDL version 423,2013-02-11 04:16:00,
2013-02-10 20:17:00,49.1,19.3,30.00,North,5,4.6,8.1,30,-99.99,,,-99.99,WSDL version 423,2013-02-11 04:17:00,
2013-02-10 20:18:00,49.1,19.1,30.00,North,8,5.7,11.4,30,-99.99,,,-99.99,WSDL version 423,2013-02-11 04:18:00,
2013-02-10 20:19:00,49.1,19.0,30.03,North,6,6.1,11.4,30,-99.99,,,-99.99,WSDL version 423,2013-02-11 04:19:00,
2013-02-10 20:20:00,49.2,19.1,30.03,North,8,7.3,11.4,30,-99.99,,,-99.99,WSDL version 423,2013-02-11 04:20:00,
2013-02-10 20:21:00,49.2,19.1,30.03,North,8,7.7,11.4,30,-99.99,,,-99.99,WSDL version 423,2013-02-11 04:21:00,
2013-02-10 20:22:00,49.2,19.1,30.03,North,6,6.7,11.4,30,-99.99,,,-99.99,WSDL version 423,2013-02-11 04:22:00,
2013-02-10 20:23:00,49.2,19.1,30.03,North,8,6.2,11.4,30,-99.99,,,-99.99,WSDL version 423,2013-02-11 04:23:00,
2013-02-10 20:24:00,49.2,19.1,30.03,North,10,6.7,11.4,30,-99.99,,,-99.99,WSDL version 423,2013-02-11 04:24:00,
2013-02-10 20:25:00,49.1,19.0,30.03,North,11,7.7,11.4,30,-99.99,,,-99.99,WSDL version 423,2013-02-11 04:25:00,
2013-02-10 20:26:00,49.1,19.0,30.03,NNE,17,7.9,11.4,30,-99.99,,,-99.99,WSDL version 423,2013-02-11 04:26:00,
2013-02-10 20:27:00,49.1,19.0,30.03,NNE,15,8.0,11.4,30,-99.99,,,-99.99,WSDL version 423,2013-02-11 04:27:00,
2013-02-10 20:28:00,49.1,19.0,30.03,NNE,13,8.1,11.0,30,-99.99,,,-99.99,WSDL version 423,2013-02-11 04:28:00,
2013-02-10 20:29:00,49.1,19.0,30.03,NNE,17,8.3,12.3,30,-99.99,,,-99.99,WSDL version 423,2013-02-11 04:29:00,
2013-02-10 20:30:00,49.1,19.0,30.03,NNE,15,9.1,12.3,30,-99.99,,,-99.99,WSDL version 423,2013-02-11 04:30:00,
2013-02-10 20:31:00,49.0,19.0,30.03,North,8,9.3,12.3,30,-99.99,,,-99.99,WSDL version 423,2013-02-11 04:31:00,
2013-02-10 20:32:00,49.0,18.9,30.03,North,6,8.8,12.3,30,-99.99,,,-99.99,WSDL version 423,2013-02-11 04:32:00,
2013-02-10 20:33:00,49.0,18.9,30.03,NNE,14,7.8,12.3,30,-99.99,,,-99.99,WSDL version 423,2013-02-11 04:33:00,
2013-02-10 20:34:00,48.9,18.8,30.03,North,5,6.9,12.3,30,-99.99,,,-99.99,WSDL version 423,2013-02-11 04:34:00,
2013-02-10 20:35:00,48.8,18.8,30.03,North,3,7.3,12.3,30,-99.99,,,-99.99,WSDL version 423,2013-02-11 04:35:00,
2013-02-10 20:36:00,48.8,18.8,30.03,NNE,16,7.9,12.3,30,-99.99,,,-99.99,WSDL version 423,2013-02-11 04:36:00,
2013-02-10 20:37:00,48.8,18.7,30.03,NNE,28,8.2,12.3,30,-99.99,,,-99.99,WSDL version 423,2013-02-11 04:37:00,
2013-02-10 20:38:00,48.8,18.8,30.03,NNE,33,9.0,12.8,30,-99.99,,,-99.99,WSDL version 423,2013-02-11 04:38:00,
2013-02-10 20:39:00,48.9,18.8,30.03,NE,34,9.8,12.8,30,-99.99,,,-99.99,WSDL version 423,2013-02-11 04:39:00,
2013-02-10 20:40:00,48.9,19.0,30.03,NE,34,9.1,12.8,31,-99.99,,,-99.99,WSDL version 423,2013-02-11 04:40:00,
2013-02-10 20:41:00,48.9,19.1,30.03,NNE,18,7.8,12.8,31,-99.99,,,-99.99,WSDL version 423,2013-02-11 04:41:00,
2013-02-10 20:42:00,48.9,19.2,30.03,NNE,13,6.8,12.8,31,-99.99,,,-99.99,WSDL version 423,2013-02-11 04:42:00,
2013-02-10 20:43:00,48.8,19.3,30.03,NNE,23,6.4,12.8,31,-99.99,,,-99.99,WSDL version 423,2013-02-11 04:43:00,
2013-02-10 20:44:00,48.8,19.5,30.03,NNE,20,6.2,12.8,31,-99.99,,,-99.99,WSDL version 423,2013-02-11 04:44:00,
2013-02-10 20:45:00,48.7,19.4,30.03,NNE,18,5.8,12.8,31,-99.99,,,-99.99,WSDL version 423,2013-02-11 04:45:00,
2013-02-10 20:46:00,48.7,19.4,30.03,NNE,20,5.7,12.8,31,-99.99,,,-99.99,WSDL version 423,2013-02-11 04:46:00,
2013-02-10 20:47:00,48.6,19.4,30.03,NNE,31,5.9,12.8,31,-99.99,,,-99.99,WSDL version 423,2013-02-11 04:47:00,
2013-02-10 20:48:00,48.6,19.3,30.03,NNE,30,6.2,10.5,31,-99.99,,,-99.99,WSDL version 423,2013-02-11 04:48:00,
2013-02-10 20:49:00,48.6,19.3,30.03,NNE,28,6.3,10.5,31,-99.99,,,-99.99,WSDL version 423,2013-02-11 04:49:00,
2013-02-10 20:50:00,48.6,19.3,30.03,NNE,25,6.6,8.7,31,-99.99,,,-99.99,WSDL version 423,2013-02-11 04:50:00,
2013-02-10 20:51:00,48.6,19.3,30.03,NNE,25,6.7,8.7,31,-99.99,,,-99.99,WSDL version 423,2013-02-11 04:51:00,
2013-02-10 20:52:00,48.5,19.3,30.03,NNE,28,6.1,8.7,31,-99.99,,,-99.99,WSDL version 423,2013-02-11 04:52:00,
2013-02-10 20:53:00,48.5,19.2,30.03,NNE,25,6.0,8.7,31,-99.99,,,-99.99,WSDL version 423,2013-02-11 04:53:00,
2013-02-10 20:54:00,48.4,19.2,30.03,NNE,25,6.7,8.7,31,-99.99,,,-99.99,WSDL version 423,2013-02-11 04:54:00,
2013-02-10 20:55:00,48.4,19.2,30.03,NNE,20,7.0,8.7,31,-99.99,,,-99.99,WSDL version 423,2013-02-11 04:55:00,
2013-02-10 20:56:00,48.4,19.1,30.03,NNE,20,6.6,8.7,31,-99.99,,,-99.99,WSDL version 423,2013-02-11 04:56:00,
2013-02-10 20:57:00,48.3,19.1,30.03,NNE,25,6.1,11.0,31,-99.99,,,-99.99,WSDL version 423,2013-02-11 04:57:00,
2013-02-10 20:58:00,48.3,19.1,30.03,NNE,20,6.5,11.0,31,-99.99,,,-99.99,WSDL version 423,2013-02-11 04:58:00,
2013-02-10 20:59:00,48.2,19.0,30.03,NNE,18,6.2,11.0,31,-99.99,,,-99.99,WSDL version 423,2013-02-11 04:59:00,
2013-02-10 21:00:00,48.2,19.0,30.03,NNE,20,4.9,11.0,31,-99.99,,,-99.99,WSDL version 423,2013-02-11 05:00:00,
2013-02-10 21:01:00,48.1,18.9,30.03,NNE,20,4.7,11.0,31,-99.99,,,-99.99,WSDL version 423,2013-02-11 05:01:00,
2013-02-10 21:02:00,48.1,18.9,30.03,NNE,25,4.9,11.0,31,-99.99,,,-99.99,WSDL version 423,2013-02-11 05:02:00,
2013-02-10 21:03:00,48.1,18.9,30.03,NNE,25,4.8,11.0,31,-99.99,,,-99.99,WSDL version 423,2013-02-11 05:03:00,
2013-02-10 21:04:00,48.0,18.8,30.03,NNE,25,4.9,11.0,31,-99.99,,,-99.99,WSDL version 423,2013-02-11 05:04:00,
2013-02-10 21:05:00,48.0,18.8,30.03,NE,34,5.5,11.0,31,-99.99,,,-99.99,WSDL version 423,2013-02-11 05:05:00,
2013-02-10 21:06:00,48.0,18.8,30.03,NNE,31,5.9,11.0,31,-99.99,,,-99.99,WSDL version 423,2013-02-11 05:06:00,
2013-02-10 21:07:00,47.9,18.7,30.03,NE,34,5.5,10.5,31,-99.99,,,-99.99,WSDL version 423,2013-02-11 05:07:00,
2013-02-10 21:08:00,47.9,18.7,30.03,NE,42,5.9,10.5,31,-99.99,,,-99.99,WSDL version 423,2013-02-11 05:08:00,
2013-02-10 21:09:00,47.9,18.7,30.03,NE,40,7.0,10.5,31,-99.99,,,-99.99,WSDL version 423,2013-02-11 05:09:00,
2013-02-10 21:10:00,47.9,18.7,30.03,NNE,33,7.7,11.0,31,-99.99,,,-99.99,WSDL version 423,2013-02-11 05:10:00,
2013-02-10 21:11:00,47.9,18.7,30.03,NNE,28,8.4,11.4,31,-99.99,,,-99.99,WSDL version 423,2013-02-11 05:11:00,
2013-02-10 21:12:00,47.9,18.7,30.03,NNE,30,8.4,11.4,31,-99.99,,,-99.99,WSDL version 423,2013-02-11 05:12:00,
2013-02-10 21:13:00,47.9,18.7,30.03,NNE,30,7.7,11.4,31,-99.99,,,-99.99,WSDL version 423,2013-02-11 05:13:00,
2013-02-10 21:14:00,47.9,18.7,30.03,NE,34,7.2,11.4,31,-99.99,,,-99.99,WSDL version 423,2013-02-11 05:14:00,
2013-02-10 21:15:00,47.9,18.7,30.03,NNE,25,7.3,11.4,31,-99.99,,,-99.99,WSDL version 423,2013-02-11 05:15:00,
2013-02-10 21:16:00,47.8,18.6,30.03,NNE,20,6.7,11.4,31,-99.99,,,-99.99,WSDL version 423,2013-02-11 05:16:00,
2013-02-10 21:17:00,47.7,18.6,30.03,NNE,18,5.7,11.4,31,-99.99,,,-99.99,WSDL version 423,2013-02-11 05:17:00,
2013-02-10 21:18:00,47.7,18.5,30.03,NNE,20,5.1,11.4,31,-99.99,,,-99.99,WSDL version 423,2013-02-11 05:18:00,
2013-02-10 21:19:00,47.6,18.4,30.03,NNE,31,5.1,11.4,31,-99.99,,,-99.99,WSDL version 423,2013-02-11 05:19:00,
2013-02-10 21:20:00,47.5,18.4,30.03,NNE,31,4.8,11.4,31,-99.99,,,-99.99,WSDL version 423,2013-02-11 05:20:00,
2013-02-10 21:21:00,47.4,18.3,30.03,NE,42,4.6,8.7,31,-99.99,,,-99.99,WSDL version 423,2013-02-11 05:21:00,
2013-02-10 21:22:00,47.3,18.2,30.03,NE,56,5.0,8.7,31,-99.99,,,-99.99,WSDL version 423,2013-02-11 05:22:00,
2013-02-10 21:23:00,47.3,18.2,30.03,ENE,63,4.2,8.7,31,-99.99,,,-99.99,WSDL version 423,2013-02-11 05:23:00,
2013-02-10 21:24:00,47.2,18.1,30.03,ENE,75,3.5,8.7,31,-99.99,,,-99.99,WSDL version 423,2013-02-11 05:24:00,
2013-02-10 21:25:00,47.2,18.1,30.03,ENE,76,3.8,8.7,31,-99.99,,,-99.99,WSDL version 423,2013-02-11 05:25:00,
2013-02-10 21:26:00,47.1,18.0,30.03,ENE,70,3.8,8.3,31,-99.99,,,-99.99,WSDL version 423,2013-02-11 05:26:00,
2013-02-10 21:27:00,47.1,18.0,30.03,ENE,65,3.6,8.3,31,-99.99,,,-99.99,WSDL version 423,2013-02-11 05:27:00,
2013-02-10 21:28:00,47.0,18.0,30.03,ENE,62,3.7,7.6,31,-99.99,,,-99.99,WSDL version 423,2013-02-11 05:28:00,
2013-02-10 21:29:00,47.0,17.9,30.03,ENE,65,3.7,7.6,31,-99.99,,,-99.99,WSDL version 423,2013-02-11 05:29:00,
2013-02-10 21:30:00,46.9,17.9,30.03,NE,48,3.5,7.6,31,-99.99,,,-99.99,WSDL version 423,2013-02-11 05:30:00,
2013-02-10 21:31:00,46.9,17.8,30.03,NE,38,3.4,5.8,31,-99.99,,,-99.99,WSDL version 423,2013-02-11 05:31:00,
2013-02-10 21:32:00,46.8,17.8,30.03,NE,42,3.4,5.8,31,-99.99,,,-99.99,WSDL version 423,2013-02-11 05:32:00,
2013-02-10 21:33:00,46.8,17.7,30.03,NE,45,3.3,5.8,31,-99.99,,,-99.99,WSDL version 423,2013-02-11 05:33:00,
2013-02-10 21:34:00,46.7,17.7,30.03,NE,45,3.1,5.8,31,-99.99,,,-99.99,WSDL version 423,2013-02-11 05:34:00,
2013-02-10 21:35:00,46.7,17.7,30.03,NE,45,3.1,5.8,31,-99.99,,,-99.99,WSDL version 423,2013-02-11 05:35:00,
2013-02-10 21:36:00,46.7,17.7,30.03,NE,45,3.1,5.8,31,-99.99,,,-99.99,WSDL version 423,2013-02-11 05:36:00,
2013-02-10 21:37:00,46.7,17.6,30.03,NE,45,2.9,5.8,31,-99.99,,,-99.99,WSDL version 423,2013-02-11 05:37:00,
2013-02-10 21:38:00,46.6,17.6,30.03,NE,45,2.6,5.8,31,-99.99,,,-99.99,WSDL version 423,2013-02-11 05:38:00,
2013-02-10 21:39:00,46.5,17.5,30.03,NE,45,2.6,4.9,31,-99.99,,,-99.99,WSDL version 423,2013-02-11 05:39:00,
2013-02-10 21:40:00,46.5,17.5,30.03,NNE,33,3.1,5.4,31,-99.99,,,-99.99,WSDL version 423,2013-02-11 05:40:00,
2013-02-10 21:41:00,46.5,17.5,30.03,NNE,23,3.4,5.4,31,-99.99,,,-99.99,WSDL version 423,2013-02-11 05:41:00,
2013-02-10 21:42:00,46.4,17.4,30.03,NNE,23,3.5,5.4,31,-99.99,,,-99.99,WSDL version 423,2013-02-11 05:42:00,
2013-02-10 21:43:00,46.4,17.4,30.03,NNE,23,3.3,5.4,31,-99.99,,,-99.99,WSDL version 423,2013-02-11 05:43:00,
2013-02-10 21:44:00,46.4,17.4,30.03,NNE,23,3.2,5.4,31,-99.99,,,-99.99,WSDL version 423,2013-02-11 05:44:00,
2013-02-10 21:45:00,46.4,17.4,30.03,NNE,23,3.2,5.4,31,-99.99,,,-99.99,WSDL version 423,2013-02-11 05:45:00,
2013-02-10 21:50:00,46.4,16.8,30.06,NNE,23,3.4,4.9,30,-99.99,,,-99.99,WSDL version 423,2013-02-11 05:50:00,
2013-02-10 21:51:00,46.4,16.7,30.06,North,5,3.5,4.9,30,-99.99,,,-99.99,WSDL version 423,2013-02-11 05:51:00,
2013-02-10 21:52:00,46.4,16.7,30.06,NNW,345,3.3,4.9,30,-99.99,,,-99.99,WSDL version 423,2013-02-11 05:52:00,
2013-02-10 21:53:00,46.4,16.8,30.06,NNW,338,2.7,4.9,31,-99.99,,,-99.99,WSDL version 423,2013-02-11 05:53:00,
2013-02-10 21:54:00,46.3,16.9,30.06,NNW,340,1.0,4.9,31,-99.99,,,-99.99,WSDL version 423,2013-02-11 05:54:00,
2013-02-10 21:56:00,46.4,17.4,30.03,NNE,23,3.1,5.4,31,-99.99,,,-99.99,WSDL version 423,2013-02-11 05:56:00,
2013-02-10 21:57:00,45.9,17.0,30.06,NE,40,2.6,4.9,31,-99.99,,,-99.99,WSDL version 423,2013-02-11 05:57:00,
2013-02-10 22:05:00,46.2,17.0,30.06,North,355,0.6,4.9,31,-99.99,,,-99.99,WSDL version 423,2013-02-11 06:05:00,
2013-02-10 22:10:00,45.8,16.9,30.06,NNE,17,4.0,5.4,31,-99.99,,,-99.99,WSDL version 423,2013-02-11 06:10:00,
2013-02-10 22:15:00,45.7,16.9,30.06,NNE,23,1.9,5.4,32,-99.99,,,-99.99,WSDL version 423,2013-02-11 06:15:00,
2013-02-10 22:20:00,45.5,17.4,30.06,NNE,23,3.4,4.9,32,-99.99,,,-99.99,WSDL version 423,2013-02-11 06:20:00,
2013-02-10 22:25:00,45.6,17.4,30.06,North,360,0.5,4.9,32,-99.99,,,-99.99,WSDL version 423,2013-02-11 06:25:00,
2013-02-10 22:30:00,45.4,16.7,30.06,NNW,340,3.6,4.9,31,-99.99,,,-99.99,WSDL version 423,2013-02-11 06:30:00,
2013-02-10 22:35:00,45.2,16.4,30.06,NNE,23,3.4,5.4,31,-99.99,,,-99.99,WSDL version 423,2013-02-11 06:35:00,
2013-02-10 22:40:00,44.8,16.0,30.06,North,3,5.4,11.0,31,-99.99,,,-99.99,WSDL version 423,2013-02-11 06:40:00,
2013-02-10 22:45:00,45.6,16.0,30.03,NNE,14,7.2,11.0,30,-99.99,,,-99.99,WSDL version 423,2013-02-11 06:45:00,
2013-02-10 22:50:00,45.3,15.7,30.03,NNW,338,2.8,8.7,30,-99.99,,,-99.99,WSDL version 423,2013-02-11 06:50:00,
2013-02-10 22:55:00,45.5,15.9,30.03,NNW,341,5.4,11.0,30,-99.99,,,-99.99,WSDL version 423,2013-02-11 06:55:00,
2013-02-10 23:00:00,45.9,16.2,30.06,NNW,340,7.0,11.0,30,-99.99,,,-99.99,WSDL version 423,2013-02-11 07:00:00,
2013-02-10 23:05:00,45.6,16.0,30.06,NNW,343,6.5,9.6,30,-99.99,,,-99.99,WSDL version 423,2013-02-11 07:05:00,
2013-02-10 23:10:00,45.2,15.6,30.06,NW,318,7.0,9.6,30,-99.99,,,-99.99,WSDL version 423,2013-02-11 07:10:00,
2013-02-10 23:15:00,45.2,15.6,30.06,NNW,335,6.7,11.0,30,-99.99,,,-99.99,WSDL version 423,2013-02-11 07:15:00,
2013-02-10 23:20:00,44.9,15.3,30.06,NNW,346,6.4,11.0,30,-99.99,,,-99.99,WSDL version 423,2013-02-11 07:20:00,
2013-02-10 23:25:00,44.9,15.3,30.06,NW,325,6.4,10.5,30,-99.99,,,-99.99,WSDL version 423,2013-02-11 07:25:00,
2013-02-10 23:30:00,44.7,15.2,30.06,NNW,329,5.9,10.5,30,-99.99,,,-99.99,WSDL version 423,2013-02-11 07:30:00,
2013-02-10 23:35:00,44.6,15.1,30.06,NNW,333,7.6,9.2,30,-99.99,,,-99.99,WSDL version 423,2013-02-11 07:35:00,
2013-02-10 23:40:00,44.6,15.1,30.06,NNW,333,8.4,10.5,30,-99.99,,,-99.99,WSDL version 423,2013-02-11 07:40:00,
2013-02-10 23:45:00,44.5,15.0,30.06,NNW,338,8.7,12.8,30,-99.99,,,-99.99,WSDL version 423,2013-02-11 07:45:00,
2013-02-10 23:50:00,44.5,15.0,30.06,NNW,330,6.5,12.8,30,-99.99,,,-99.99,WSDL version 423,2013-02-11 07:50:00,
2013-02-10 23:55:00,44.3,14.8,30.06,NNW,340,6.5,10.1,30,-99.99,,,-99.99,WSDL version 423,2013-02-11 07:55:00,